SIA22 WSSS-KEWR

Flight info

Callsign SIA22
Flight time N/A
Altitude 32000
Route TOMAN3A TOMAN L625 AKMON/K0952F320 L625 ANOKI/N0502F350 L625 MEVIN B462 KAZIK Y59 AZAMA Y57 SHIBK/N0488F370 Y57 PUTER A590 PASRO/N0496F390 A590 HAMND DCT TED/N0494F410 J511 GKN J124 ORT DCT 63N140W 63N130W 62N120W 59N110W 5530N10000W DCT MISAX DCT SSM DCT BUF DCT HNK FLOSI4
Aircraft A359/H-SDE2E3GHIJ3J4J5LM1ORWXY/LB1D1

Departure

Time N/A
Airport Singapore Changi Airport (WSSS)

Arrival

Time 2026-04-26 13:52
Airport Newark Liberty International Airport (KEWR)
Time Latitude Longitude Altitude Speed Heading
2026-04-26 04:26 49.62954 163.76792 38929 ft 520 kts 54°
2026-04-26 04:26 49.64896 163.81502 38922 ft 520 kts 54°
2026-04-26 04:27 49.68768 163.90918 38922 ft 520 kts 54°
2026-04-26 04:27 49.72638 164.00362 38921 ft 520 kts 54°
2026-04-26 04:28 49.76502 164.09827 38918 ft 520 kts 54°
2026-04-26 04:28 49.80341 164.19262 38923 ft 520 kts 54°
2026-04-26 04:29 49.84184 164.28744 38911 ft 519 kts 54°
2026-04-26 04:29 49.88023 164.38248 38911 ft 519 kts 54°
2026-04-26 04:30 49.91854 164.47767 38905 ft 519 kts 54°
2026-04-26 04:30 49.95037 164.55701 38903 ft 520 kts 55°
2026-04-26 04:31 49.99468 164.66789 38888 ft 520 kts 55°
2026-04-26 04:31 50.02659 164.74801 38896 ft 520 kts 55°
2026-04-26 04:32 50.06437 164.84322 38906 ft 520 kts 55°
2026-04-26 04:32 50.10231 164.93916 38897 ft 520 kts 55°
2026-04-26 04:33 50.14022 165.03537 38907 ft 520 kts 55°
2026-04-26 04:33 50.17800 165.13163 38897 ft 519 kts 56°
2026-04-26 04:34 50.21539 165.22812 38893 ft 519 kts 56°
2026-04-26 04:34 50.25245 165.32506 38892 ft 520 kts 56°
2026-04-26 04:35 50.28922 165.42151 38892 ft 520 kts 56°
2026-04-26 04:35 50.32623 165.51872 38889 ft 520 kts 56°
2026-04-26 04:36 50.36316 165.61604 38885 ft 520 kts 57°
2026-04-26 04:36 50.40009 165.71368 38881 ft 520 kts 57°
2026-04-26 04:37 50.43695 165.81154 38882 ft 520 kts 57°
2026-04-26 04:37 50.47344 165.90879 38878 ft 520 kts 57°
2026-04-26 04:38 50.51013 166.00693 38871 ft 519 kts 57°
2026-04-26 04:38 50.54661 166.10490 38873 ft 518 kts 57°
2026-04-26 04:39 50.58293 166.20279 38872 ft 518 kts 57°
2026-04-26 04:39 50.61900 166.30039 38869 ft 518 kts 57°
2026-04-26 04:40 50.65530 166.39895 38867 ft 518 kts 57°
2026-04-26 04:40 50.69138 166.49733 38864 ft 518 kts 57°
2026-04-26 04:41 50.72714 166.59522 38867 ft 518 kts 57°
2026-04-26 04:41 50.76316 166.69416 38859 ft 518 kts 57°
2026-04-26 04:42 50.79900 166.79303 38858 ft 518 kts 57°
2026-04-26 04:42 50.83455 166.89147 38851 ft 519 kts 57°
2026-04-26 04:43 50.87035 166.99094 38841 ft 519 kts 58°
2026-04-26 04:43 50.90596 167.09033 38839 ft 518 kts 57°
2026-04-26 04:44 50.94149 167.18987 38844 ft 519 kts 57°
2026-04-26 04:44 50.97702 167.28976 38824 ft 520 kts 58°
2026-04-26 04:45 51.01241 167.38968 38822 ft 519 kts 58°
2026-04-26 04:45 51.04749 167.48912 38815 ft 520 kts 57°
2026-04-26 04:46 51.08281 167.58960 38814 ft 520 kts 58°
2026-04-26 04:46 51.11793 167.68996 38807 ft 519 kts 58°
2026-04-26 04:47 51.15304 167.79067 38799 ft 521 kts 58°
2026-04-26 04:47 51.18815 167.89176 38800 ft 520 kts 58°
2026-04-26 04:48 51.24029 168.04271 38794 ft 520 kts 58°
2026-04-26 04:48 51.27513 168.14400 38779 ft 520 kts 59°
2026-04-26 04:49 51.30977 168.24520 38778 ft 518 kts 59°
2026-04-26 04:49 51.34432 168.34652 38767 ft 519 kts 58°
2026-04-26 04:50 51.37887 168.44820 38761 ft 519 kts 59°
2026-04-26 04:50 51.41324 168.54981 38758 ft 518 kts 59°
2026-04-26 04:51 51.44737 168.65111 38748 ft 521 kts 59°
2026-04-26 04:51 51.48173 168.75350 38745 ft 520 kts 59°
2026-04-26 04:52 51.51581 168.85552 38739 ft 519 kts 59°
2026-04-26 04:52 51.54995 168.95809 38734 ft 520 kts 59°
2026-04-26 04:53 51.58383 169.06032 38718 ft 517 kts 60°
2026-04-26 04:53 51.61759 169.16260 38709 ft 517 kts 59°
2026-04-26 04:54 51.65110 169.26455 38710 ft 519 kts 60°
2026-04-26 04:54 51.68469 169.36716 38699 ft 516 kts 59°
2026-04-26 04:55 51.71816 169.46981 38699 ft 518 kts 60°
2026-04-26 04:55 51.75158 169.57275 38690 ft 518 kts 60°
2026-04-26 04:56 51.78485 169.67565 38686 ft 516 kts 60°
2026-04-26 04:56 51.81808 169.77889 38689 ft 519 kts 60°
2026-04-26 04:57 51.85133 169.88254 38687 ft 518 kts 61°
2026-04-26 04:57 51.88413 169.98533 38674 ft 518 kts 60°
2026-04-26 04:58 51.91723 170.08945 38665 ft 520 kts 61°
2026-04-26 04:58 51.95016 170.19347 38662 ft 516 kts 61°
2026-04-26 04:59 51.98288 170.29729 38657 ft 517 kts 62°
2026-04-26 04:59 52.01533 170.40067 38656 ft 516 kts 62°
2026-04-26 05:00 52.04802 170.50525 38661 ft 516 kts 62°
2026-04-26 05:00 52.08023 170.60876 38649 ft 517 kts 62°
2026-04-26 05:01 52.11323 170.71274 38650 ft 516 kts 57°
2026-04-26 05:01 52.15606 170.80583 38638 ft 513 kts 49°
2026-04-26 05:02 52.20235 170.89434 38641 ft 513 kts 47°
2026-04-26 05:02 52.24917 170.98222 38635 ft 512 kts 47°
2026-04-26 05:03 52.29576 171.07030 38634 ft 513 kts 47°
2026-04-26 05:03 52.34201 171.15836 38630 ft 513 kts 48°
2026-04-26 05:04 52.38848 171.24733 38621 ft 514 kts 48°
2026-04-26 05:04 52.43498 171.33667 38620 ft 515 kts 48°
2026-04-26 05:05 52.48102 171.42541 38626 ft 513 kts 48°
2026-04-26 05:05 52.52709 171.51456 38616 ft 511 kts 48°
2026-04-26 05:06 52.57319 171.60408 38610 ft 514 kts 48°
2026-04-26 05:06 52.61933 171.69397 38613 ft 514 kts 49°
2026-04-26 05:07 52.66537 171.78397 38607 ft 512 kts 49°
2026-04-26 05:07 52.71111 171.87376 38613 ft 511 kts 49°
2026-04-26 05:08 52.75677 171.96374 38605 ft 512 kts 49°
2026-04-26 05:08 52.80255 172.05421 38604 ft 514 kts 48°
2026-04-26 05:09 52.84825 172.14482 38600 ft 515 kts 49°
2026-04-26 05:09 52.89393 172.23576 38605 ft 512 kts 49°
2026-04-26 05:10 52.93955 172.32700 38595 ft 515 kts 49°
2026-04-26 05:10 52.98535 172.41879 38597 ft 516 kts 49°
2026-04-26 05:11 53.03075 172.51014 38599 ft 515 kts 49°
2026-04-26 05:11 53.07622 172.60204 38593 ft 514 kts 50°
2026-04-26 05:12 53.12145 172.69372 38581 ft 511 kts 50°
2026-04-26 05:12 53.16652 172.78551 38593 ft 513 kts 49°
2026-04-26 05:13 53.21173 172.87778 38588 ft 512 kts 50°
2026-04-26 05:13 53.25665 172.96989 38588 ft 511 kts 50°
2026-04-26 05:14 53.30142 173.06202 38579 ft 510 kts 50°
2026-04-26 05:14 53.34573 173.15356 38567 ft 509 kts 50°
2026-04-26 05:15 53.39027 173.24590 38576 ft 511 kts 50°
2026-04-26 05:15 53.43508 173.33909 38567 ft 511 kts 51°
2026-04-26 05:16 53.47962 173.43211 38561 ft 511 kts 51°
2026-04-26 05:16 53.52401 173.52535 38561 ft 512 kts 52°
2026-04-26 05:17 53.55754 173.60752 38554 ft 514 kts 56°
2026-04-26 05:17 53.59632 173.70832 38560 ft 511 kts 57°
2026-04-26 05:18 53.63449 173.80928 38544 ft 509 kts 58°
2026-04-26 05:18 53.67258 173.91034 38545 ft 510 kts 58°
2026-04-26 05:19 53.71034 174.01071 38537 ft 510 kts 58°
2026-04-26 05:19 53.74839 174.11214 38532 ft 512 kts 58°
2026-04-26 05:20 53.78646 174.21405 38524 ft 511 kts 58°
2026-04-26 05:20 53.82427 174.31567 38518 ft 509 kts 58°
2026-04-26 05:21 53.86197 174.41742 38510 ft 510 kts 58°
2026-04-26 05:21 53.89959 174.51937 38507 ft 511 kts 59°
2026-04-26 05:22 53.93699 174.62116 38498 ft 511 kts 59°
2026-04-26 05:22 53.97452 174.72370 38496 ft 510 kts 59°
2026-04-26 05:23 54.01186 174.82611 38482 ft 509 kts 59°
2026-04-26 05:23 54.04911 174.92876 38484 ft 510 kts 59°
2026-04-26 05:24 54.08635 175.03179 38486 ft 512 kts 59°
2026-04-26 05:24 54.12330 175.13443 38489 ft 511 kts 59°
2026-04-26 05:25 54.16029 175.23760 38476 ft 509 kts 59°
2026-04-26 05:25 54.19740 175.34156 38462 ft 509 kts 59°
2026-04-26 05:26 54.23396 175.44440 38466 ft 510 kts 60°
2026-04-26 05:26 54.27069 175.54816 38449 ft 509 kts 60°
2026-04-26 05:27 54.30730 175.65203 38448 ft 508 kts 59°
2026-04-26 05:27 54.34378 175.75591 38435 ft 508 kts 60°
2026-04-26 05:28 54.37992 175.85931 38441 ft 509 kts 60°
2026-04-26 05:28 54.41623 175.96363 38424 ft 509 kts 60°
2026-04-26 05:29 54.45243 176.06806 38430 ft 508 kts 60°
2026-04-26 05:29 54.48844 176.17241 38411 ft 506 kts 60°
2026-04-26 05:30 54.52431 176.27676 38410 ft 507 kts 61°
2026-04-26 05:30 54.56023 176.38173 38409 ft 509 kts 61°
2026-04-26 05:31 54.59604 176.48683 38403 ft 508 kts 61°
2026-04-26 05:31 54.63172 176.59201 38390 ft 507 kts 61°
2026-04-26 05:32 54.66709 176.69669 38388 ft 508 kts 61°
2026-04-26 05:32 54.70259 176.80220 38371 ft 508 kts 62°
2026-04-26 05:33 54.73802 176.90801 38376 ft 507 kts 63°
2026-04-26 05:33 54.77325 177.01368 38364 ft 505 kts 62°
2026-04-26 05:34 54.80828 177.11917 38363 ft 505 kts 62°
2026-04-26 05:34 54.84326 177.22498 38354 ft 506 kts 62°
2026-04-26 05:35 54.87820 177.33115 38348 ft 506 kts 63°
2026-04-26 05:35 54.91303 177.43746 38334 ft 505 kts 62°
2026-04-26 05:36 54.94767 177.54360 38337 ft 505 kts 63°
2026-04-26 05:36 54.98227 177.65011 38320 ft 506 kts 64°
2026-04-26 05:37 55.01658 177.75625 38320 ft 505 kts 64°
2026-04-26 05:37 55.05094 177.86296 38301 ft 504 kts 64°
2026-04-26 05:38 55.08526 177.97002 38307 ft 505 kts 63°
2026-04-26 05:38 55.11947 178.07721 38290 ft 506 kts 64°
2026-04-26 05:39 55.15363 178.18478 38293 ft 506 kts 64°
2026-04-26 05:39 55.18753 178.29198 38273 ft 505 kts 63°
2026-04-26 05:40 55.22145 178.39964 38268 ft 505 kts 64°
2026-04-26 05:40 55.25532 178.50771 38254 ft 506 kts 65°
2026-04-26 05:41 55.28909 178.61596 38258 ft 505 kts 65°
2026-04-26 05:41 55.32274 178.72433 38239 ft 504 kts 64°
2026-04-26 05:42 55.35630 178.83249 38240 ft 504 kts 64°
2026-04-26 05:42 55.38989 178.94084 38221 ft 505 kts 66°
2026-04-26 05:43 55.42314 179.04871 38222 ft 504 kts 66°
2026-04-26 05:43 55.45646 179.15734 38206 ft 503 kts 64°
2026-04-26 05:44 55.48971 179.26619 38212 ft 504 kts 65°
2026-04-26 05:44 55.52279 179.37501 38187 ft 504 kts 66°
2026-04-26 05:45 55.55577 179.48408 38180 ft 503 kts 66°
2026-04-26 05:45 55.58864 179.59325 38191 ft 502 kts 65°
2026-04-26 05:46 55.62114 179.70165 38184 ft 502 kts 67°
2026-04-26 05:46 55.65378 179.81106 38168 ft 502 kts 66°
2026-04-26 05:47 55.68633 179.92069 38189 ft 502 kts 66°
2026-04-26 05:47 55.71876 -179.96962 38143 ft 502 kts 66°
2026-04-26 05:48 55.75116 -179.85951 38154 ft 505 kts 66°
2026-04-26 05:48 55.78358 -179.74875 38153 ft 505 kts 66°
2026-04-26 05:49 55.83182 -179.58306 38166 ft 504 kts 67°
2026-04-26 05:50 55.86392 -179.47215 38144 ft 504 kts 67°
2026-04-26 05:50 55.89590 -179.36110 38155 ft 504 kts 67°
2026-04-26 05:51 55.92778 -179.24986 38130 ft 503 kts 67°
2026-04-26 05:51 55.95954 -179.13850 38130 ft 503 kts 67°
2026-04-26 05:52 55.99103 -179.02760 38127 ft 503 kts 67°
2026-04-26 05:52 56.02263 -178.91576 38127 ft 503 kts 68°
2026-04-26 05:53 56.05406 -178.80396 38100 ft 503 kts 68°
2026-04-26 05:53 56.08540 -178.69197 38108 ft 503 kts 68°
2026-04-26 05:54 56.11661 -178.57987 38102 ft 503 kts 68°
2026-04-26 05:54 56.14773 -178.46756 38100 ft 503 kts 68°
2026-04-26 05:55 56.17872 -178.35515 38077 ft 502 kts 68°
2026-04-26 05:55 56.20961 -178.24256 38087 ft 502 kts 68°
2026-04-26 05:56 56.24017 -178.13064 38071 ft 502 kts 68°
2026-04-26 05:56 56.27085 -178.01774 38072 ft 502 kts 68°
2026-04-26 05:57 56.30137 -177.90485 38079 ft 502 kts 68°
2026-04-26 05:57 56.33182 -177.79164 38076 ft 502 kts 69°
2026-04-26 05:58 56.36219 -177.67817 38054 ft 502 kts 69°
2026-04-26 05:58 56.39248 -177.56445 38063 ft 503 kts 69°
2026-04-26 05:59 56.42253 -177.45107 38039 ft 503 kts 70°
2026-04-26 05:59 56.45262 -177.33696 38040 ft 503 kts 70°
2026-04-26 06:00 56.48264 -177.22249 38030 ft 503 kts 69°
2026-04-26 06:00 56.51258 -177.10780 38026 ft 503 kts 69°
2026-04-26 06:01 56.54243 -176.99279 38049 ft 506 kts 70°
2026-04-26 06:01 56.57212 -176.87785 38036 ft 506 kts 69°
2026-04-26 06:02 56.60189 -176.76203 38057 ft 506 kts 69°
2026-04-26 06:02 56.63156 -176.64602 38047 ft 506 kts 70°
2026-04-26 06:03 56.66114 -176.52974 38043 ft 506 kts 70°
2026-04-26 06:03 56.69062 -176.41321 38056 ft 507 kts 71°
2026-04-26 06:04 56.71998 -176.29655 38057 ft 507 kts 71°
2026-04-26 06:04 56.74919 -176.17985 38049 ft 506 kts 70°
2026-04-26 06:05 56.77815 -176.06358 38046 ft 506 kts 71°
2026-04-26 06:05 56.80712 -175.94665 38060 ft 505 kts 70°
2026-04-26 06:06 56.83108 -175.84956 38057 ft 505 kts 71°
2026-04-26 06:06 56.85978 -175.73214 38050 ft 506 kts 71°
2026-04-26 06:07 56.88830 -175.61453 38075 ft 506 kts 71°
2026-04-26 06:07 56.91673 -175.49678 38073 ft 506 kts 71°
2026-04-26 06:08 56.94506 -175.37887 38072 ft 506 kts 71°
2026-04-26 06:08 56.97334 -175.26062 38072 ft 506 kts 71°
2026-04-26 06:09 57.00133 -175.14284 38084 ft 507 kts 71°
2026-04-26 06:09 57.02947 -175.02382 38082 ft 507 kts 72°
2026-04-26 06:10 57.05742 -174.90498 38091 ft 507 kts 72°
2026-04-26 06:10 57.08524 -174.78601 38101 ft 507 kts 72°
2026-04-26 06:11 57.11295 -174.66684 38081 ft 507 kts 71°
2026-04-26 06:11 57.14060 -174.54725 38099 ft 509 kts 72°
2026-04-26 06:12 57.16822 -174.42710 38123 ft 509 kts 72°
2026-04-26 06:12 57.19575 -174.30676 38123 ft 509 kts 73°
2026-04-26 06:13 57.22316 -174.18622 38124 ft 509 kts 72°
2026-04-26 06:13 57.25046 -174.06545 38133 ft 509 kts 72°
2026-04-26 06:14 57.27759 -173.94474 38140 ft 510 kts 72°
2026-04-26 06:14 57.30451 -173.82422 38142 ft 510 kts 73°
2026-04-26 06:15 57.33155 -173.70257 38142 ft 510 kts 74°
2026-04-26 06:15 57.35881 -173.58086 38163 ft 511 kts 72°
2026-04-26 06:16 57.38627 -173.46036 38170 ft 511 kts 72°
2026-04-26 06:16 57.41380 -173.33884 38164 ft 510 kts 72°
2026-04-26 06:17 57.44109 -173.21721 38199 ft 510 kts 73°
2026-04-26 06:17 57.46824 -173.09530 38181 ft 510 kts 73°
2026-04-26 06:18 57.49524 -172.97333 38198 ft 509 kts 73°
2026-04-26 06:18 57.52205 -172.85149 38215 ft 509 kts 73°
2026-04-26 06:19 57.54872 -172.72959 38212 ft 509 kts 72°
2026-04-26 06:19 57.57518 -172.60789 38216 ft 511 kts 73°
2026-04-26 06:20 57.60177 -172.48494 38246 ft 511 kts 73°
2026-04-26 06:20 57.62826 -172.36173 38245 ft 511 kts 73°
2026-04-26 06:21 57.65463 -172.23832 38251 ft 511 kts 73°
2026-04-26 06:21 57.68086 -172.11482 38238 ft 511 kts 73°
2026-04-26 06:22 57.70697 -171.99115 38273 ft 511 kts 73°
2026-04-26 06:22 57.73279 -171.86810 38275 ft 512 kts 74°
2026-04-26 06:23 57.75869 -171.74392 38278 ft 512 kts 73°
2026-04-26 06:23 57.78446 -171.61957 38303 ft 511 kts 73°
2026-04-26 06:24 57.81012 -171.49502 38300 ft 511 kts 74°
2026-04-26 06:24 57.83563 -171.37041 38304 ft 513 kts 74°
2026-04-26 06:25 57.86110 -171.24518 38329 ft 514 kts 74°
2026-04-26 06:25 57.88649 -171.11966 38332 ft 514 kts 73°
2026-04-26 06:26 57.91176 -170.99393 38330 ft 514 kts 74°
2026-04-26 06:26 57.93673 -170.86887 38354 ft 514 kts 74°
2026-04-26 06:27 57.96177 -170.74279 38351 ft 514 kts 74°
2026-04-26 06:27 57.98841 -170.61686 38363 ft 517 kts 72°
2026-04-26 06:28 58.01588 -170.49141 38385 ft 517 kts 72°
2026-04-26 06:28 58.04285 -170.36651 38386 ft 517 kts 72°
2026-04-26 06:29 58.06962 -170.24058 38385 ft 517 kts 73°
2026-04-26 06:29 58.09617 -170.11449 38390 ft 516 kts 72°
2026-04-26 06:30 58.12266 -169.98782 38413 ft 518 kts 72°
2026-04-26 06:30 58.14909 -169.86073 38427 ft 519 kts 72°
2026-04-26 06:31 58.17540 -169.73350 38421 ft 519 kts 73°
2026-04-26 06:31 58.20159 -169.60602 38442 ft 518 kts 73°
2026-04-26 06:32 58.22766 -169.47831 38444 ft 518 kts 73°
2026-04-26 06:32 58.25359 -169.35046 38439 ft 520 kts 73°
2026-04-26 06:33 58.27930 -169.22287 38475 ft 521 kts 73°
2026-04-26 06:33 58.30508 -169.09416 38475 ft 521 kts 73°
2026-04-26 06:34 58.33070 -168.96545 38479 ft 520 kts 73°
2026-04-26 06:34 58.35616 -168.83661 38504 ft 520 kts 73°
2026-04-26 06:35 58.38151 -168.70752 38489 ft 520 kts 73°
2026-04-26 06:35 58.40679 -168.57794 38496 ft 522 kts 73°
2026-04-26 06:36 58.43182 -168.44877 38527 ft 522 kts 73°
2026-04-26 06:36 58.45692 -168.31844 38538 ft 522 kts 73°
2026-04-26 06:37 58.48183 -168.18819 38548 ft 522 kts 73°
2026-04-26 06:37 58.50659 -168.05783 38531 ft 521 kts 73°
2026-04-26 06:38 58.53119 -167.92746 38563 ft 521 kts 73°
2026-04-26 06:38 58.55570 -167.79665 38564 ft 522 kts 73°
2026-04-26 06:39 58.57994 -167.66642 38564 ft 522 kts 73°
2026-04-26 06:39 58.60417 -167.53535 38576 ft 521 kts 73°
2026-04-26 06:40 58.62827 -167.40410 38575 ft 521 kts 73°
2026-04-26 06:40 58.65228 -167.27238 38599 ft 523 kts 73°
2026-04-26 06:41 58.67622 -167.14011 38602 ft 525 kts 74°
2026-04-26 06:41 58.70006 -167.00753 38600 ft 525 kts 74°
2026-04-26 06:42 58.72401 -166.87479 38613 ft 525 kts 73°
2026-04-26 06:42 58.74789 -166.74293 38620 ft 525 kts 74°
2026-04-26 06:43 58.77181 -166.60988 38621 ft 525 kts 74°
2026-04-26 06:43 58.79555 -166.47668 38644 ft 525 kts 74°
2026-04-26 06:44 58.81911 -166.34345 38642 ft 524 kts 74°
2026-04-26 06:44 58.84238 -166.21087 38653 ft 524 kts 74°
2026-04-26 06:45 58.86566 -166.07726 38667 ft 524 kts 74°
2026-04-26 06:45 58.88874 -165.94396 38666 ft 522 kts 74°
2026-04-26 06:46 58.91180 -165.81067 38673 ft 524 kts 74°
2026-04-26 06:46 58.93485 -165.67655 38689 ft 525 kts 74°
2026-04-26 06:47 58.95782 -165.54192 38695 ft 525 kts 74°
2026-04-26 06:47 58.98049 -165.40808 38694 ft 525 kts 75°
2026-04-26 06:48 59.00315 -165.27330 38713 ft 525 kts 75°
2026-04-26 06:48 59.02565 -165.13843 38704 ft 526 kts 75°
2026-04-26 06:49 59.04795 -165.00370 38722 ft 526 kts 74°
2026-04-26 06:49 59.07016 -164.86861 38730 ft 524 kts 75°
2026-04-26 06:50 59.09223 -164.73326 38741 ft 524 kts 75°
2026-04-26 06:50 59.11416 -164.59774 38741 ft 524 kts 75°
2026-04-26 06:51 59.13594 -164.46208 38731 ft 524 kts 75°
2026-04-26 06:51 59.16836 -164.25813 38757 ft 526 kts 75°
2026-04-26 06:52 59.18972 -164.12251 38766 ft 527 kts 75°
2026-04-26 06:52 59.21107 -163.98587 38779 ft 526 kts 75°
2026-04-26 06:53 59.22868 -163.87233 38786 ft 525 kts 75°
2026-04-26 06:53 59.24978 -163.73531 38785 ft 525 kts 75°
2026-04-26 06:54 59.27067 -163.59841 38790 ft 527 kts 75°
2026-04-26 06:54 59.29141 -163.46149 38799 ft 527 kts 75°
2026-04-26 06:55 59.31212 -163.32363 38798 ft 527 kts 76°
2026-04-26 06:55 59.33267 -163.18577 38815 ft 527 kts 76°
2026-04-26 06:56 59.35307 -163.04772 38815 ft 527 kts 76°
2026-04-26 06:56 59.37331 -162.90959 38813 ft 528 kts 76°
2026-04-26 06:57 59.39349 -162.77066 38823 ft 529 kts 76°
2026-04-26 06:57 59.41341 -162.63242 38841 ft 529 kts 76°
2026-04-26 06:58 59.43329 -162.49321 38841 ft 529 kts 76°
2026-04-26 06:58 59.45306 -162.35367 38856 ft 529 kts 76°
2026-04-26 06:59 59.47396 -162.21498 38829 ft 530 kts 73°
2026-04-26 06:59 59.49782 -162.07742 38862 ft 532 kts 72°
2026-04-26 07:00 59.52156 -161.94028 38885 ft 533 kts 73°
2026-04-26 07:00 59.54490 -161.80142 38868 ft 534 kts 73°
2026-04-26 07:01 59.56785 -161.66212 38878 ft 534 kts 73°
2026-04-26 07:01 59.59062 -161.52256 38884 ft 534 kts 73°
2026-04-26 07:02 59.61325 -161.38288 38891 ft 534 kts 73°
2026-04-26 07:02 59.63582 -161.24255 38919 ft 535 kts 73°
2026-04-26 07:03 59.65812 -161.10280 38937 ft 536 kts 74°
2026-04-26 07:03 59.68043 -160.96189 38940 ft 537 kts 74°
2026-04-26 07:04 59.70264 -160.82043 38936 ft 539 kts 74°
2026-04-26 07:04 59.72463 -160.67923 38953 ft 539 kts 74°
2026-04-26 07:05 59.74658 -160.53712 38948 ft 540 kts 74°
2026-04-26 07:05 59.76842 -160.39449 38962 ft 540 kts 74°
2026-04-26 07:06 59.79015 -160.25145 38960 ft 540 kts 74°
2026-04-26 07:06 59.81169 -160.10841 38960 ft 540 kts 74°
2026-04-26 07:07 59.83307 -159.96522 38964 ft 540 kts 74°
2026-04-26 07:07 59.85416 -159.82277 38941 ft 539 kts 74°
2026-04-26 07:08 59.87523 -159.67920 38956 ft 540 kts 74°
2026-04-26 07:08 59.89617 -159.53530 38954 ft 541 kts 74°
2026-04-26 07:09 59.91695 -159.39125 38951 ft 540 kts 74°
2026-04-26 07:09 59.93758 -159.24692 38948 ft 541 kts 74°
2026-04-26 07:11 59.98825 -158.88693 38968 ft 539 kts 74°
2026-04-26 07:11 60.00823 -158.74266 38968 ft 538 kts 75°
2026-04-26 07:12 60.02808 -158.59808 38966 ft 538 kts 75°
2026-04-26 07:12 60.04774 -158.45359 38980 ft 538 kts 75°
2026-04-26 07:13 60.06724 -158.30888 38979 ft 538 kts 75°
2026-04-26 07:13 60.08659 -158.16397 38985 ft 539 kts 75°
2026-04-26 07:14 60.10582 -158.01858 39010 ft 539 kts 75°
2026-04-26 07:14 60.12475 -157.87416 38996 ft 538 kts 75°
2026-04-26 07:15 60.14369 -157.72818 38995 ft 537 kts 75°
2026-04-26 07:15 60.16222 -157.58401 38999 ft 537 kts 75°
2026-04-26 07:16 60.18073 -157.43866 38999 ft 537 kts 75°
2026-04-26 07:16 60.19909 -157.29302 38998 ft 537 kts 75°
2026-04-26 07:17 60.21730 -157.14717 39002 ft 537 kts 76°
2026-04-26 07:17 60.23534 -157.00119 39004 ft 538 kts 76°
2026-04-26 07:18 60.25323 -156.85502 39006 ft 538 kts 76°
2026-04-26 07:18 60.27098 -156.70851 39014 ft 538 kts 76°
2026-04-26 07:19 60.28855 -156.56197 39012 ft 538 kts 76°
2026-04-26 07:19 60.30596 -156.41525 39023 ft 538 kts 76°
2026-04-26 07:20 60.32313 -156.26907 39032 ft 538 kts 76°
2026-04-26 07:20 60.34029 -156.12146 39035 ft 538 kts 76°
2026-04-26 07:21 60.35724 -155.97401 39047 ft 538 kts 76°
2026-04-26 07:21 60.37396 -155.82712 39042 ft 538 kts 77°
2026-04-26 07:22 60.39058 -155.67942 39039 ft 539 kts 77°
2026-04-26 07:22 60.40712 -155.53090 39047 ft 540 kts 77°
2026-04-26 07:23 60.42334 -155.38357 39050 ft 540 kts 77°
2026-04-26 07:23 60.43950 -155.23511 39052 ft 540 kts 77°
2026-04-26 07:24 60.45551 -155.08647 39048 ft 540 kts 77°
2026-04-26 07:24 60.47135 -154.93760 39061 ft 540 kts 77°
2026-04-26 07:25 60.48702 -154.78875 39055 ft 540 kts 77°
2026-04-26 07:25 60.50500 -154.64102 39055 ft 539 kts 72°
2026-04-26 07:26 60.52763 -154.49623 39057 ft 538 kts 70°
2026-04-26 07:26 60.55092 -154.35155 39058 ft 539 kts 70°
2026-04-26 07:27 60.57397 -154.20768 39064 ft 539 kts 71°
2026-04-26 07:27 60.59694 -154.06254 39064 ft 539 kts 71°
2026-04-26 07:28 60.61970 -153.91715 39065 ft 537 kts 71°
2026-04-26 07:28 60.64206 -153.77299 39075 ft 536 kts 71°
2026-04-26 07:29 60.66437 -153.62800 39078 ft 536 kts 71°
2026-04-26 07:29 60.68655 -153.48271 39091 ft 536 kts 71°
2026-04-26 07:30 60.70854 -153.33736 39092 ft 536 kts 71°
2026-04-26 07:30 60.73041 -153.19168 39096 ft 536 kts 71°
2026-04-26 07:31 60.75209 -153.04595 39101 ft 534 kts 72°
2026-04-26 07:31 60.77352 -152.90058 39105 ft 533 kts 72°
2026-04-26 07:32 60.79476 -152.75537 39108 ft 533 kts 72°
2026-04-26 07:32 60.81583 -152.60994 39118 ft 532 kts 72°
2026-04-26 07:33 60.83663 -152.46514 39118 ft 532 kts 72°
2026-04-26 07:33 60.85741 -152.31914 39118 ft 533 kts 72°
2026-04-26 07:34 60.87805 -152.17291 39103 ft 532 kts 73°
2026-04-26 07:34 60.89847 -152.02694 39113 ft 532 kts 73°
2026-04-26 07:35 60.91874 -151.88074 39110 ft 532 kts 73°
2026-04-26 07:35 60.93884 -151.73433 39110 ft 532 kts 73°
2026-04-26 07:36 60.95878 -151.58781 39108 ft 532 kts 73°
2026-04-26 07:36 60.97844 -151.44205 39105 ft 532 kts 73°
2026-04-26 07:37 60.99809 -151.29494 39114 ft 531 kts 74°
2026-04-26 07:37 61.01756 -151.14782 39095 ft 530 kts 74°
2026-04-26 07:38 61.03678 -151.00118 39102 ft 530 kts 74°
2026-04-26 07:38 61.05584 -150.85437 39102 ft 530 kts 74°
2026-04-26 07:39 61.07464 -150.70815 39100 ft 530 kts 74°
2026-04-26 07:39 61.09341 -150.56082 39102 ft 530 kts 74°
2026-04-26 07:40 61.11203 -150.41317 39119 ft 530 kts 75°
2026-04-26 07:40 61.12735 -150.29059 39105 ft 529 kts 75°
2026-04-26 07:41 61.14854 -150.11938 39107 ft 528 kts 75°
2026-04-26 07:41 61.16418 -149.99587 39099 ft 529 kts 71°
2026-04-26 07:41 61.17745 -149.92582 39238 ft 528 kts 64°
2026-04-26 07:42 61.19295 -149.85675 39406 ft 527 kts 63°
2026-04-26 07:42 61.20897 -149.78848 39577 ft 526 kts 62°
2026-04-26 07:42 61.22523 -149.72065 39703 ft 525 kts 62°
2026-04-26 07:42 61.24161 -149.65281 39845 ft 525 kts 62°
2026-04-26 07:43 61.25797 -149.58499 40002 ft 524 kts 62°
2026-04-26 07:43 61.27421 -149.51727 40192 ft 523 kts 62°
2026-04-26 07:43 61.29036 -149.44951 40316 ft 523 kts 63°
2026-04-26 07:43 61.30646 -149.38159 40453 ft 523 kts 63°
2026-04-26 07:44 61.32248 -149.31371 40562 ft 523 kts 63°
2026-04-26 07:44 61.33846 -149.24571 40664 ft 523 kts 63°
2026-04-26 07:44 61.35438 -149.17768 40792 ft 523 kts 63°
2026-04-26 07:45 61.38598 -149.04207 40967 ft 522 kts 63°
2026-04-26 07:45 61.40180 -148.97386 41072 ft 522 kts 63°
2026-04-26 07:45 61.41763 -148.90543 41124 ft 523 kts 63°
2026-04-26 07:46 61.44910 -148.76869 41116 ft 522 kts 63°
2026-04-26 07:46 61.48041 -148.63179 41121 ft 522 kts 64°
2026-04-26 07:47 61.51157 -148.49464 41121 ft 521 kts 64°
2026-04-26 07:47 61.54244 -148.35795 41123 ft 522 kts 64°
2026-04-26 07:48 61.57336 -148.22009 41120 ft 521 kts 64°
2026-04-26 07:48 61.60412 -148.08210 41126 ft 522 kts 64°
2026-04-26 07:49 61.63472 -147.94391 41127 ft 521 kts 64°
2026-04-26 07:49 61.66518 -147.80543 41123 ft 521 kts 64°
2026-04-26 07:50 61.71045 -147.59798 41126 ft 521 kts 64°
2026-04-26 07:50 61.74059 -147.45869 41130 ft 522 kts 65°
2026-04-26 07:51 61.77057 -147.31922 41120 ft 521 kts 65°
2026-04-26 07:51 61.80036 -147.17967 41113 ft 521 kts 65°
2026-04-26 07:52 61.83009 -147.03951 41115 ft 521 kts 65°
2026-04-26 07:52 61.85945 -146.90015 41110 ft 521 kts 65°
2026-04-26 07:53 61.88886 -146.75962 41099 ft 521 kts 65°
2026-04-26 07:53 61.91805 -146.61916 41108 ft 520 kts 66°
2026-04-26 07:54 61.94710 -146.47843 41099 ft 520 kts 66°
2026-04-26 07:54 61.97602 -146.33739 41096 ft 520 kts 66°
2026-04-26 07:55 62.00475 -146.19625 41099 ft 520 kts 66°
2026-04-26 07:55 62.03319 -146.05562 41097 ft 520 kts 66°
2026-04-26 07:56 62.06168 -145.91376 41089 ft 520 kts 67°
2026-04-26 07:56 62.08998 -145.77183 41100 ft 520 kts 67°
2026-04-26 07:57 62.11813 -145.62965 41078 ft 520 kts 67°
2026-04-26 07:57 62.14614 -145.48724 41078 ft 520 kts 67°
2026-04-26 07:58 62.17575 -145.34609 41080 ft 519 kts 63°
2026-04-26 07:58 62.20976 -145.20940 41111 ft 520 kts 62°
2026-04-26 07:59 62.24394 -145.07274 41106 ft 520 kts 62°
2026-04-26 07:59 62.27709 -144.93583 41111 ft 520 kts 63°
2026-04-26 08:00 62.30995 -144.79730 41115 ft 520 kts 63°
2026-04-26 08:00 62.34262 -144.65833 41114 ft 520 kts 63°
2026-04-26 08:01 62.37518 -144.51905 41103 ft 520 kts 64°
2026-04-26 08:01 62.40758 -144.37964 41099 ft 520 kts 64°
2026-04-26 08:02 62.43965 -144.24081 41118 ft 520 kts 64°
2026-04-26 08:02 62.47179 -144.10079 41103 ft 520 kts 64°
2026-04-26 08:03 62.50379 -143.96043 41108 ft 520 kts 64°
2026-04-26 08:03 62.53571 -143.81953 41106 ft 520 kts 65°
2026-04-26 08:04 62.56712 -143.67995 41112 ft 517 kts 65°
2026-04-26 08:04 62.59854 -143.53943 41115 ft 517 kts 65°
2026-04-26 08:05 62.62979 -143.39869 41098 ft 517 kts 65°
2026-04-26 08:05 62.66094 -143.25752 41105 ft 517 kts 65°
2026-04-26 08:06 62.69194 -143.11606 41089 ft 517 kts 65°
2026-04-26 08:06 62.72257 -142.97532 41089 ft 516 kts 66°
2026-04-26 08:07 62.75323 -142.83356 41091 ft 516 kts 66°
2026-04-26 08:07 62.78375 -142.69147 41089 ft 516 kts 66°
2026-04-26 08:08 62.81395 -142.54989 41083 ft 516 kts 66°
2026-04-26 08:08 62.84413 -142.40746 41062 ft 516 kts 66°
2026-04-26 08:09 62.87418 -142.26469 41035 ft 515 kts 66°
2026-04-26 08:09 62.90410 -142.12153 41029 ft 516 kts 67°
2026-04-26 08:10 62.93348 -141.97780 41022 ft 516 kts 70°
2026-04-26 08:10 62.94975 -141.82573 41026 ft 511 kts 85°
2026-04-26 08:11 62.95623 -141.67038 41035 ft 510 kts 88°
2026-04-26 08:11 62.96089 -141.51566 41093 ft 510 kts 89°
2026-04-26 08:12 62.96538 -141.35979 41096 ft 510 kts 89°
2026-04-26 08:12 62.96991 -141.20413 41097 ft 510 kts 89°
2026-04-26 08:13 62.97439 -141.04860 41097 ft 510 kts 89°
2026-04-26 08:13 62.97871 -140.89299 41100 ft 510 kts 89°
2026-04-26 08:14 62.98286 -140.73733 41102 ft 510 kts 89°
2026-04-26 08:14 62.98681 -140.58255 41102 ft 510 kts 89°
2026-04-26 08:15 62.99061 -140.42673 41102 ft 510 kts 89°
2026-04-26 08:15 62.99424 -140.27091 41108 ft 510 kts 89°
2026-04-26 08:16 62.99770 -140.11508 41091 ft 509 kts 90°
2026-04-26 08:16 63.00105 -139.95934 41107 ft 510 kts 89°
2026-04-26 08:17 63.00612 -139.80344 41107 ft 510 kts 88°
2026-04-26 08:17 63.01181 -139.64881 41108 ft 510 kts 88°
2026-04-26 08:18 63.01714 -139.49311 41120 ft 510 kts 88°
2026-04-26 08:18 63.02207 -139.33714 41113 ft 510 kts 88°
2026-04-26 08:19 63.02675 -139.18116 41109 ft 509 kts 89°
2026-04-26 08:19 63.03125 -139.02544 41107 ft 509 kts 89°
2026-04-26 08:20 63.03558 -138.86982 41116 ft 509 kts 89°
2026-04-26 08:20 63.03976 -138.71402 41116 ft 509 kts 89°
2026-04-26 08:21 63.04373 -138.55925 41108 ft 509 kts 89°
2026-04-26 08:21 63.04755 -138.40334 41107 ft 509 kts 89°
2026-04-26 08:22 63.05121 -138.24751 41109 ft 509 kts 89°
2026-04-26 08:22 63.05471 -138.09144 41101 ft 509 kts 90°
2026-04-26 08:23 63.05803 -137.93524 41109 ft 509 kts 90°
2026-04-26 08:23 63.06118 -137.77943 41108 ft 509 kts 90°
2026-04-26 08:24 63.06414 -137.62356 41116 ft 509 kts 90°
2026-04-26 08:24 63.06694 -137.46762 41111 ft 509 kts 90°
2026-04-26 08:25 63.06955 -137.31263 41113 ft 509 kts 90°
2026-04-26 08:25 63.07201 -137.15668 41107 ft 509 kts 90°
2026-04-26 08:26 63.07430 -137.00054 41104 ft 509 kts 90°
2026-04-26 08:26 63.07641 -136.84435 41106 ft 509 kts 91°
2026-04-26 08:27 63.07835 -136.68808 41100 ft 508 kts 91°
2026-04-26 08:27 63.08011 -136.53313 41111 ft 508 kts 91°
2026-04-26 08:28 63.08171 -136.37709 41101 ft 508 kts 91°
2026-04-26 08:28 63.08314 -136.22095 41116 ft 508 kts 91°
2026-04-26 08:29 63.08440 -136.06460 41098 ft 509 kts 91°
2026-04-26 08:29 63.08532 -135.93488 41108 ft 508 kts 91°
2026-04-26 08:30 63.08626 -135.77885 41105 ft 508 kts 91°
2026-04-26 08:30 63.08703 -135.62250 41104 ft 508 kts 92°
2026-04-26 08:31 63.08763 -135.46649 41105 ft 508 kts 92°
2026-04-26 08:31 63.08805 -135.31030 41106 ft 508 kts 92°
2026-04-26 08:32 63.08831 -135.15436 41105 ft 508 kts 92°
2026-04-26 08:32 63.08839 -134.99843 41109 ft 508 kts 92°
2026-04-26 08:33 63.08830 -134.84262 41109 ft 508 kts 92°
2026-04-26 08:33 63.08805 -134.68763 41094 ft 507 kts 92°
2026-04-26 08:34 63.08762 -134.53176 41092 ft 507 kts 92°
2026-04-26 08:34 63.08702 -134.37598 41085 ft 507 kts 92°
2026-04-26 08:35 63.08625 -134.22027 41083 ft 507 kts 92°
2026-04-26 08:35 63.08531 -134.06459 41079 ft 507 kts 92°
2026-04-26 08:36 63.08420 -133.90918 41082 ft 507 kts 93°
2026-04-26 08:36 63.08293 -133.75446 41066 ft 506 kts 93°
2026-04-26 08:37 63.08148 -133.59913 41084 ft 505 kts 93°
2026-04-26 08:37 63.07987 -133.44408 41078 ft 505 kts 93°
2026-04-26 08:38 63.07808 -133.28903 41082 ft 505 kts 93°
2026-04-26 08:38 63.07614 -133.13484 41085 ft 505 kts 93°
2026-04-26 08:39 63.07402 -132.98002 41069 ft 505 kts 93°
2026-04-26 08:39 63.07172 -132.82521 41082 ft 504 kts 94°
2026-04-26 08:40 63.06926 -132.67059 41055 ft 504 kts 94°
2026-04-26 08:40 63.06664 -132.51601 41071 ft 503 kts 94°
2026-04-26 08:41 63.06385 -132.36180 41070 ft 503 kts 94°
2026-04-26 08:41 63.06089 -132.20741 41076 ft 503 kts 94°
2026-04-26 08:42 63.05779 -132.05408 41091 ft 503 kts 94°
2026-04-26 08:42 63.05450 -131.89997 41095 ft 503 kts 94°
2026-04-26 08:43 63.05105 -131.74596 41097 ft 503 kts 94°
2026-04-26 08:43 63.04743 -131.59205 41089 ft 503 kts 94°
2026-04-26 08:44 63.04365 -131.43815 41102 ft 502 kts 94°
2026-04-26 08:44 63.03968 -131.28417 41105 ft 502 kts 94°
2026-04-26 08:45 63.03556 -131.13046 41087 ft 502 kts 95°
2026-04-26 08:45 63.03131 -130.97789 41107 ft 502 kts 95°
2026-04-26 08:46 63.02686 -130.82424 41102 ft 501 kts 95°
2026-04-26 08:46 63.02226 -130.67109 41104 ft 501 kts 95°
2026-04-26 08:47 63.01749 -130.51804 41097 ft 501 kts 95°
2026-04-26 08:47 63.01259 -130.36613 41100 ft 500 kts 95°
2026-04-26 08:48 63.00750 -130.21325 41099 ft 500 kts 95°
2026-04-26 08:48 63.00225 -130.06063 41100 ft 500 kts 95°
2026-04-26 08:49 62.99600 -129.90804 41100 ft 500 kts 98°
2026-04-26 08:49 62.98608 -129.75679 41100 ft 499 kts 100°
2026-04-26 08:50 62.97551 -129.60592 41107 ft 499 kts 100°
2026-04-26 08:50 62.96536 -129.45579 41107 ft 499 kts 99°
2026-04-26 08:51 62.95023 -129.22912 41107 ft 499 kts 99°
2026-04-26 08:52 62.93999 -129.07799 41107 ft 499 kts 99°
2026-04-26 08:52 62.92957 -128.92716 41104 ft 499 kts 100°
2026-04-26 08:53 62.91904 -128.77728 41106 ft 499 kts 100°
2026-04-26 08:53 62.90829 -128.62661 41105 ft 500 kts 100°
2026-04-26 08:54 62.89737 -128.47606 41104 ft 500 kts 100°
2026-04-26 08:54 62.88630 -128.32564 41108 ft 499 kts 100°
2026-04-26 08:55 62.87508 -128.17538 41111 ft 499 kts 100°
2026-04-26 08:55 62.86367 -128.02517 41111 ft 499 kts 101°
2026-04-26 08:56 62.85213 -127.87519 41111 ft 499 kts 101°
2026-04-26 08:56 62.84050 -127.72622 41093 ft 499 kts 101°
2026-04-26 08:57 62.82864 -127.57653 41094 ft 499 kts 101°
2026-04-26 08:57 62.81663 -127.42709 41092 ft 498 kts 101°
2026-04-26 08:58 62.80448 -127.27793 41087 ft 498 kts 101°
2026-04-26 08:58 62.79217 -127.12888 41090 ft 498 kts 101°
2026-04-26 08:59 62.77969 -126.97981 41097 ft 498 kts 101°
2026-04-26 08:59 62.76707 -126.83108 41113 ft 498 kts 101°
2026-04-26 09:00 62.75428 -126.68232 41114 ft 498 kts 102°
2026-04-26 09:00 62.74134 -126.53381 41123 ft 498 kts 102°
2026-04-26 09:01 62.72826 -126.38552 41123 ft 498 kts 102°
2026-04-26 09:01 62.71509 -126.23823 41119 ft 498 kts 102°
2026-04-26 09:02 62.70170 -126.09026 41121 ft 498 kts 102°
2026-04-26 09:02 62.68814 -125.94231 41129 ft 498 kts 102°
2026-04-26 09:03 62.67445 -125.79470 41139 ft 498 kts 102°
2026-04-26 09:03 62.66058 -125.64705 41140 ft 498 kts 102°
2026-04-26 09:04 62.64656 -125.49954 41150 ft 497 kts 102°
2026-04-26 09:04 62.63240 -125.35236 41151 ft 497 kts 102°
2026-04-26 09:05 62.61811 -125.20559 41155 ft 496 kts 102°
2026-04-26 09:05 62.60366 -125.05883 41162 ft 496 kts 102°
2026-04-26 09:06 62.58914 -124.91308 41162 ft 496 kts 103°
2026-04-26 09:06 62.57441 -124.76687 41173 ft 496 kts 103°
2026-04-26 09:07 62.55948 -124.62043 41184 ft 496 kts 102°
2026-04-26 09:07 62.54446 -124.47456 41184 ft 496 kts 103°
2026-04-26 09:08 62.52927 -124.32882 41204 ft 496 kts 103°
2026-04-26 09:08 62.51395 -124.18345 41209 ft 500 kts 103°
2026-04-26 09:09 62.49833 -124.03670 41207 ft 499 kts 103°
2026-04-26 09:09 62.48260 -123.89058 41234 ft 499 kts 103°
2026-04-26 09:10 62.46680 -123.74536 41232 ft 499 kts 103°
2026-04-26 09:10 62.45079 -123.59982 41235 ft 496 kts 103°
2026-04-26 09:11 62.43472 -123.45518 41282 ft 495 kts 103°
2026-04-26 09:11 62.41848 -123.31057 41282 ft 495 kts 103°
2026-04-26 09:12 62.40212 -123.16631 41299 ft 496 kts 103°
2026-04-26 09:12 62.38553 -123.02156 41311 ft 498 kts 103°
2026-04-26 09:13 62.36879 -122.87695 41304 ft 496 kts 103°
2026-04-26 09:13 62.35194 -122.73286 41314 ft 496 kts 103°
2026-04-26 09:14 62.33506 -122.58990 41322 ft 495 kts 103°
2026-04-26 09:14 62.31796 -122.44650 41329 ft 493 kts 103°
2026-04-26 09:15 62.30074 -122.30353 41331 ft 494 kts 103°
2026-04-26 09:15 62.28336 -122.16052 41346 ft 494 kts 103°
2026-04-26 09:16 62.26587 -122.01808 41346 ft 492 kts 104°
2026-04-26 09:16 62.24827 -121.87617 41346 ft 492 kts 103°
2026-04-26 09:17 62.23054 -121.73436 41352 ft 491 kts 103°
2026-04-26 09:17 62.21280 -121.59393 41357 ft 490 kts 103°
2026-04-26 09:18 62.19483 -121.45286 41357 ft 490 kts 103°
2026-04-26 09:18 62.17965 -121.33473 41363 ft 491 kts 104°
2026-04-26 09:19 62.16153 -121.19483 41363 ft 491 kts 104°
2026-04-26 09:19 62.14316 -121.05426 41362 ft 489 kts 103°
2026-04-26 09:20 62.12470 -120.91432 41376 ft 489 kts 104°
2026-04-26 09:20 62.10612 -120.77463 41376 ft 488 kts 103°
2026-04-26 09:21 62.08739 -120.63504 41376 ft 488 kts 104°
2026-04-26 09:21 62.06855 -120.49587 41395 ft 488 kts 104°
2026-04-26 09:22 62.04955 -120.35679 41395 ft 488 kts 104°
2026-04-26 09:22 62.03055 -120.21881 41405 ft 488 kts 104°
2026-04-26 09:23 62.01128 -120.08012 41414 ft 488 kts 105°
2026-04-26 09:23 61.98667 -119.94526 41411 ft 489 kts 114°
2026-04-26 09:24 61.95641 -119.81550 41417 ft 490 kts 115°
2026-04-26 09:24 61.92511 -119.68675 41416 ft 490 kts 116°
2026-04-26 09:25 61.89374 -119.55845 41419 ft 490 kts 116°
2026-04-26 09:25 61.86236 -119.43019 41419 ft 490 kts 116°
2026-04-26 09:26 61.83109 -119.30283 41423 ft 490 kts 116°
2026-04-26 09:26 61.79951 -119.17486 41419 ft 490 kts 116°
2026-04-26 09:27 61.76779 -119.04712 41425 ft 490 kts 116°
2026-04-26 09:27 61.73600 -118.91986 41425 ft 490 kts 116°
2026-04-26 09:28 61.70405 -118.79271 41425 ft 490 kts 116°
2026-04-26 09:28 61.67223 -118.66676 41427 ft 490 kts 116°
2026-04-26 09:29 61.64005 -118.54012 41428 ft 490 kts 116°
2026-04-26 09:29 61.60776 -118.41380 41422 ft 490 kts 116°
2026-04-26 09:30 61.57537 -118.28780 41422 ft 490 kts 116°
2026-04-26 09:30 61.54284 -118.16193 41427 ft 490 kts 117°
2026-04-26 09:31 61.51023 -118.03648 41427 ft 490 kts 117°
2026-04-26 09:31 61.47747 -117.91119 41427 ft 490 kts 117°
2026-04-26 09:32 61.44457 -117.78606 41422 ft 490 kts 117°
2026-04-26 09:32 61.41161 -117.66139 41423 ft 490 kts 117°
2026-04-26 09:33 61.37881 -117.53800 41424 ft 489 kts 117°
2026-04-26 09:33 61.34569 -117.41410 41422 ft 489 kts 117°
2026-04-26 09:34 61.31248 -117.29053 41419 ft 489 kts 117°
2026-04-26 09:34 61.27911 -117.16707 41415 ft 489 kts 117°
2026-04-26 09:35 61.24562 -117.04380 41409 ft 490 kts 117°
2026-04-26 09:35 61.21196 -116.92063 41427 ft 490 kts 118°
2026-04-26 09:36 61.17819 -116.79770 41409 ft 490 kts 118°
2026-04-26 09:36 61.14453 -116.67585 41402 ft 490 kts 118°
2026-04-26 09:37 61.11058 -116.55360 41420 ft 490 kts 118°
2026-04-26 09:37 61.07639 -116.43115 41404 ft 491 kts 118°
2026-04-26 09:38 61.04207 -116.30889 41395 ft 492 kts 118°
2026-04-26 09:38 61.00765 -116.18694 41380 ft 492 kts 118°
2026-04-26 09:39 60.97337 -116.06615 41375 ft 492 kts 118°
2026-04-26 09:39 60.93873 -115.94470 41363 ft 492 kts 118°
2026-04-26 09:40 60.90397 -115.82347 41363 ft 492 kts 118°
2026-04-26 09:40 60.86912 -115.70260 41353 ft 492 kts 119°
2026-04-26 09:41 60.83411 -115.58183 41355 ft 492 kts 119°
2026-04-26 09:41 60.79902 -115.46142 41369 ft 492 kts 119°
2026-04-26 09:42 60.76405 -115.34201 41378 ft 492 kts 119°
2026-04-26 09:42 60.72880 -115.22228 41397 ft 491 kts 119°
2026-04-26 09:43 60.69343 -115.10278 41394 ft 491 kts 120°
2026-04-26 09:43 60.65797 -114.98361 41393 ft 491 kts 120°
2026-04-26 09:44 60.62239 -114.86464 41387 ft 491 kts 120°
2026-04-26 09:44 60.58695 -114.74674 41386 ft 491 kts 120°
2026-04-26 09:45 60.55113 -114.62819 41387 ft 491 kts 120°
2026-04-26 09:45 60.51519 -114.50984 41386 ft 491 kts 120°
2026-04-26 09:46 60.47922 -114.39201 41387 ft 491 kts 120°
2026-04-26 09:46 60.44312 -114.27436 41388 ft 491 kts 120°
2026-04-26 09:47 60.40722 -114.15796 41380 ft 490 kts 120°
2026-04-26 09:47 60.37107 -114.04133 41378 ft 490 kts 121°
2026-04-26 09:48 60.33475 -113.92473 41379 ft 490 kts 121°
2026-04-26 09:48 60.29831 -113.80833 41365 ft 490 kts 121°
2026-04-26 09:49 60.26181 -113.69233 41367 ft 490 kts 121°
2026-04-26 09:49 60.22540 -113.57720 41368 ft 490 kts 121°
2026-04-26 09:50 60.18872 -113.46178 41372 ft 490 kts 121°
2026-04-26 09:50 60.15188 -113.34645 41372 ft 490 kts 121°
2026-04-26 09:51 60.11495 -113.23138 41362 ft 490 kts 121°
2026-04-26 09:51 60.07815 -113.11732 41365 ft 490 kts 121°
2026-04-26 09:52 60.04101 -113.00274 41366 ft 490 kts 121°
2026-04-26 09:52 59.98521 -112.83164 41356 ft 489 kts 121°
2026-04-26 09:53 59.94791 -112.71794 41359 ft 490 kts 121°
2026-04-26 09:53 59.91048 -112.60444 41349 ft 490 kts 121°
2026-04-26 09:54 59.87287 -112.49092 41339 ft 491 kts 122°
2026-04-26 09:54 59.83518 -112.37772 41335 ft 491 kts 122°
2026-04-26 09:55 59.79763 -112.26549 41332 ft 491 kts 122°
2026-04-26 09:55 59.75974 -112.15277 41349 ft 491 kts 122°
2026-04-26 09:56 59.72176 -112.04033 41347 ft 490 kts 122°
2026-04-26 09:56 59.68370 -111.92821 41341 ft 490 kts 122°
2026-04-26 09:57 59.64551 -111.81624 41342 ft 490 kts 122°
2026-04-26 09:57 59.60725 -111.70457 41338 ft 490 kts 122°
2026-04-26 09:58 59.56887 -111.59311 41338 ft 490 kts 122°
2026-04-26 09:58 59.53069 -111.48274 41334 ft 490 kts 122°
2026-04-26 09:59 59.49837 -111.38973 41333 ft 491 kts 122°
2026-04-26 09:59 59.45346 -111.26106 41327 ft 491 kts 123°
2026-04-26 10:00 59.41472 -111.15066 41335 ft 491 kts 123°
2026-04-26 10:00 59.37583 -111.04032 41330 ft 490 kts 123°
2026-04-26 10:01 59.33699 -110.93067 41329 ft 489 kts 123°
2026-04-26 10:01 59.29806 -110.82125 41319 ft 489 kts 123°
2026-04-26 10:02 59.25921 -110.71256 41316 ft 489 kts 123°
2026-04-26 10:02 59.22004 -110.60349 41314 ft 490 kts 123°
2026-04-26 10:03 59.18082 -110.49479 41314 ft 490 kts 123°
2026-04-26 10:03 59.14177 -110.38704 41324 ft 490 kts 123°
2026-04-26 10:04 59.10239 -110.27888 41308 ft 490 kts 123°
2026-04-26 10:04 59.06289 -110.17089 41308 ft 490 kts 123°
2026-04-26 10:05 59.02333 -110.06321 41306 ft 489 kts 124°
2026-04-26 10:05 58.98683 -109.95229 41306 ft 487 kts 118°
2026-04-26 10:06 58.95383 -109.83755 41303 ft 487 kts 117°
2026-04-26 10:06 58.92148 -109.72298 41303 ft 487 kts 117°
2026-04-26 10:07 58.88884 -109.60792 41306 ft 487 kts 117°
2026-04-26 10:07 58.85599 -109.49312 41305 ft 488 kts 117°
2026-04-26 10:08 58.82851 -109.39768 41303 ft 488 kts 117°
2026-04-26 10:08 58.79542 -109.28330 41303 ft 488 kts 117°
2026-04-26 10:09 58.76244 -109.16987 41306 ft 488 kts 118°
2026-04-26 10:09 58.72919 -109.05603 41304 ft 488 kts 118°
2026-04-26 10:10 58.69580 -108.94230 41303 ft 488 kts 118°
2026-04-26 10:10 58.66228 -108.82867 41297 ft 488 kts 118°
2026-04-26 10:11 58.62867 -108.71530 41297 ft 488 kts 118°
2026-04-26 10:11 58.59521 -108.60298 41297 ft 488 kts 118°
2026-04-26 10:12 58.56141 -108.49009 41297 ft 488 kts 118°
2026-04-26 10:12 58.52750 -108.37734 41301 ft 488 kts 118°
2026-04-26 10:13 58.49349 -108.26482 41293 ft 489 kts 118°
2026-04-26 10:13 58.45938 -108.15252 41293 ft 489 kts 119°
2026-04-26 10:14 58.42512 -108.04026 41285 ft 489 kts 119°
2026-04-26 10:14 58.39072 -107.92811 41287 ft 489 kts 119°
2026-04-26 10:15 58.35649 -107.81702 41285 ft 489 kts 119°
2026-04-26 10:15 58.32198 -107.70553 41271 ft 489 kts 119°
2026-04-26 10:16 58.28733 -107.59414 41272 ft 489 kts 119°
2026-04-26 10:16 58.25261 -107.48308 41264 ft 488 kts 120°
2026-04-26 10:17 58.21802 -107.37292 41260 ft 487 kts 120°
2026-04-26 10:17 58.18317 -107.26249 41254 ft 487 kts 120°
2026-04-26 10:18 58.14827 -107.15237 41249 ft 487 kts 120°
2026-04-26 10:18 58.11322 -107.04232 41252 ft 487 kts 120°
2026-04-26 10:19 58.07814 -106.93269 41240 ft 487 kts 120°
2026-04-26 10:19 58.04321 -106.82403 41239 ft 487 kts 120°
2026-04-26 10:20 58.00791 -106.71470 41228 ft 487 kts 120°
2026-04-26 10:20 57.97261 -106.60591 41244 ft 486 kts 120°
2026-04-26 10:21 57.93723 -106.49737 41223 ft 486 kts 120°
2026-04-26 10:21 57.90181 -106.38920 41222 ft 485 kts 121°
2026-04-26 10:22 57.86631 -106.28126 41223 ft 486 kts 121°
2026-04-26 10:22 57.83070 -106.17348 41216 ft 486 kts 121°
2026-04-26 10:23 57.79500 -106.06591 41220 ft 486 kts 121°
2026-04-26 10:23 57.75936 -105.95903 41205 ft 486 kts 121°
2026-04-26 10:24 57.72347 -105.85188 41203 ft 485 kts 121°
2026-04-26 10:24 57.68756 -105.74514 41192 ft 485 kts 121°
2026-04-26 10:25 57.65152 -105.63850 41192 ft 485 kts 121°
2026-04-26 10:25 57.61534 -105.53192 41184 ft 486 kts 121°
2026-04-26 10:26 57.57908 -105.42557 41175 ft 485 kts 122°
2026-04-26 10:26 57.54275 -105.31950 41176 ft 485 kts 122°
2026-04-26 10:27 57.50633 -105.21363 41164 ft 485 kts 122°
2026-04-26 10:27 57.46983 -105.10801 41171 ft 486 kts 122°
2026-04-26 10:28 57.43325 -105.00260 41170 ft 486 kts 122°
2026-04-26 10:28 57.39676 -104.89795 41171 ft 485 kts 122°
2026-04-26 10:29 57.36000 -104.79296 41165 ft 485 kts 122°
2026-04-26 10:29 57.32311 -104.68804 41165 ft 485 kts 122°
2026-04-26 10:30 57.28615 -104.58341 41156 ft 486 kts 122°
2026-04-26 10:30 57.24929 -104.47951 41157 ft 486 kts 123°
2026-04-26 10:31 57.21210 -104.37513 41149 ft 486 kts 123°
2026-04-26 10:31 57.17489 -104.27112 41143 ft 485 kts 123°
2026-04-26 10:32 57.13761 -104.16739 41143 ft 485 kts 123°
2026-04-26 10:32 57.10025 -104.06389 41133 ft 486 kts 123°
2026-04-26 10:33 57.06272 -103.96034 41133 ft 486 kts 123°
2026-04-26 10:33 57.02534 -103.85766 41127 ft 486 kts 123°
2026-04-26 10:34 56.98764 -103.75457 41124 ft 486 kts 123°
2026-04-26 10:34 56.94992 -103.65180 41116 ft 486 kts 123°
2026-04-26 10:35 56.91208 -103.54918 41125 ft 486 kts 124°
2026-04-26 10:35 56.87416 -103.44677 41117 ft 486 kts 124°
2026-04-26 10:36 56.83613 -103.34451 41105 ft 486 kts 124°
2026-04-26 10:36 56.79801 -103.24242 41105 ft 486 kts 124°
2026-04-26 10:37 56.75986 -103.14072 41097 ft 486 kts 124°
2026-04-26 10:37 56.72180 -103.03963 41096 ft 486 kts 124°
2026-04-26 10:38 56.68342 -102.93814 41095 ft 486 kts 124°
2026-04-26 10:38 56.64498 -102.83691 41089 ft 486 kts 124°
2026-04-26 10:39 56.60647 -102.73594 41083 ft 486 kts 125°
2026-04-26 10:39 56.56782 -102.63501 41083 ft 486 kts 125°
2026-04-26 10:40 56.52914 -102.53442 41075 ft 486 kts 125°
2026-04-26 10:40 56.49059 -102.43458 41075 ft 486 kts 125°
2026-04-26 10:41 56.45166 -102.33416 41077 ft 487 kts 125°
2026-04-26 10:41 56.41269 -102.23404 41067 ft 487 kts 125°
2026-04-26 10:42 56.37356 -102.13395 41065 ft 487 kts 126°
2026-04-26 10:42 56.33458 -102.03464 41059 ft 487 kts 126°
2026-04-26 10:43 56.29537 -101.93517 41058 ft 487 kts 126°
2026-04-26 10:43 56.25609 -101.83590 41052 ft 487 kts 126°
2026-04-26 10:44 56.21670 -101.73678 41050 ft 487 kts 126°
2026-04-26 10:44 56.17724 -101.63787 41045 ft 487 kts 126°
2026-04-26 10:45 56.13758 -101.53887 41045 ft 487 kts 126°
2026-04-26 10:45 56.09791 -101.44024 41035 ft 487 kts 126°
2026-04-26 10:46 56.05823 -101.34199 41039 ft 487 kts 126°
2026-04-26 10:46 56.01847 -101.24393 41039 ft 486 kts 126°
2026-04-26 10:47 55.97887 -101.14665 41034 ft 486 kts 127°
2026-04-26 10:47 55.93900 -101.04910 41034 ft 486 kts 127°
2026-04-26 10:48 55.89903 -100.95169 41031 ft 486 kts 127°
2026-04-26 10:48 55.85893 -100.85437 41037 ft 486 kts 127°
2026-04-26 10:49 55.81903 -100.75792 41036 ft 487 kts 127°
2026-04-26 10:49 55.77868 -100.66074 41031 ft 488 kts 127°
2026-04-26 10:50 55.74506 -100.58008 41034 ft 488 kts 127°
2026-04-26 10:50 55.69802 -100.46766 41034 ft 488 kts 127°
2026-04-26 10:51 55.63719 -100.32304 41034 ft 488 kts 127°
2026-04-26 10:52 55.59653 -100.22685 41033 ft 488 kts 127°
2026-04-26 10:52 55.55577 -100.13081 41035 ft 488 kts 127°
2026-04-26 10:53 55.51497 -100.03502 41030 ft 488 kts 128°
2026-04-26 10:53 55.47442 -99.93910 41036 ft 488 kts 127°
2026-04-26 10:54 55.41547 -99.79355 41036 ft 487 kts 126°
2026-04-26 10:54 55.37599 -99.69660 41037 ft 488 kts 126°
2026-04-26 10:55 55.33621 -99.59985 41037 ft 488 kts 127°
2026-04-26 10:55 55.30303 -99.51960 41036 ft 488 kts 127°
2026-04-26 10:56 55.25657 -99.40772 41037 ft 488 kts 127°
2026-04-26 10:56 55.22298 -99.32711 41036 ft 488 kts 127°
2026-04-26 10:57 55.18323 -99.23205 41039 ft 487 kts 127°
2026-04-26 10:57 55.14313 -99.13652 41039 ft 487 kts 127°
2026-04-26 10:58 55.10291 -99.04109 41039 ft 488 kts 127°
2026-04-26 10:58 55.06256 -98.94571 41036 ft 488 kts 127°
2026-04-26 10:59 55.02218 -98.85063 41039 ft 488 kts 127°
2026-04-26 10:59 54.98172 -98.75570 41024 ft 488 kts 127°
2026-04-26 11:00 54.94115 -98.66090 41035 ft 488 kts 127°
2026-04-26 11:00 54.90079 -98.56694 41037 ft 488 kts 127°
2026-04-26 11:01 54.86003 -98.47244 41031 ft 489 kts 128°
2026-04-26 11:01 54.81914 -98.37798 41031 ft 489 kts 128°
2026-04-26 11:02 54.77823 -98.28382 41031 ft 489 kts 128°
2026-04-26 11:02 54.73726 -98.18989 41031 ft 489 kts 128°
2026-04-26 11:03 54.69620 -98.09613 41026 ft 489 kts 128°
2026-04-26 11:03 54.65503 -98.00246 41031 ft 490 kts 128°
2026-04-26 11:04 54.61402 -97.90950 41032 ft 490 kts 128°
2026-04-26 11:04 54.57263 -97.81603 41034 ft 490 kts 128°
2026-04-26 11:05 54.53122 -97.72286 41037 ft 490 kts 128°
2026-04-26 11:05 54.48975 -97.62991 41036 ft 490 kts 128°
2026-04-26 11:06 54.44817 -97.53707 41037 ft 491 kts 128°
2026-04-26 11:06 54.40641 -97.44417 41039 ft 491 kts 129°
2026-04-26 11:07 54.36461 -97.35153 41040 ft 490 kts 129°
2026-04-26 11:07 54.32296 -97.25957 41040 ft 490 kts 129°
2026-04-26 11:08 54.28105 -97.16737 41038 ft 490 kts 129°
2026-04-26 11:08 54.23925 -97.07576 41037 ft 491 kts 129°
2026-04-26 11:09 54.19701 -96.98352 41040 ft 492 kts 129°
2026-04-26 11:09 54.15478 -96.89165 41039 ft 492 kts 129°
2026-04-26 11:10 54.11252 -96.80004 41043 ft 491 kts 129°
2026-04-26 11:10 54.07021 -96.70867 41046 ft 491 kts 129°
2026-04-26 11:11 54.02776 -96.61734 41045 ft 492 kts 130°
2026-04-26 11:11 53.98550 -96.52674 41044 ft 492 kts 130°
2026-04-26 11:12 53.94284 -96.43563 41045 ft 492 kts 130°
2026-04-26 11:12 53.90015 -96.34476 41045 ft 493 kts 130°
2026-04-26 11:13 53.85735 -96.25402 41041 ft 493 kts 130°
2026-04-26 11:13 53.81455 -96.16357 41049 ft 493 kts 130°
2026-04-26 11:14 53.77155 -96.07306 41051 ft 494 kts 130°
2026-04-26 11:14 53.72844 -95.98265 41046 ft 494 kts 130°
2026-04-26 11:15 53.68528 -95.89244 41049 ft 494 kts 130°
2026-04-26 11:15 53.64199 -95.80231 41064 ft 494 kts 130°
2026-04-26 11:16 53.59889 -95.71288 41048 ft 494 kts 131°
2026-04-26 11:16 53.55543 -95.62303 41055 ft 494 kts 131°
2026-04-26 11:17 53.51192 -95.53341 41060 ft 494 kts 131°
2026-04-26 11:17 53.46835 -95.44398 41058 ft 494 kts 131°
2026-04-26 11:18 53.42500 -95.35532 41072 ft 494 kts 131°
2026-04-26 11:18 53.38130 -95.26626 41072 ft 494 kts 131°
2026-04-26 11:19 53.33753 -95.17736 41068 ft 494 kts 131°
2026-04-26 11:19 53.29369 -95.08866 41065 ft 494 kts 131°
2026-04-26 11:20 53.25722 -95.01510 41078 ft 494 kts 131°
2026-04-26 11:20 53.20611 -94.91238 41077 ft 494 kts 131°
2026-04-26 11:21 53.16202 -94.82411 41077 ft 494 kts 132°
2026-04-26 11:21 53.11794 -94.73617 41081 ft 495 kts 132°
2026-04-26 11:22 53.07360 -94.64801 41080 ft 495 kts 132°
2026-04-26 11:22 53.02964 -94.56093 41087 ft 495 kts 132°
2026-04-26 11:23 52.98522 -94.47322 41087 ft 495 kts 132°
2026-04-26 11:23 52.94077 -94.38577 41086 ft 495 kts 132°
2026-04-26 11:24 52.89624 -94.29848 41086 ft 496 kts 133°
2026-04-26 11:24 52.85185 -94.21175 41089 ft 496 kts 133°
2026-04-26 11:25 52.80717 -94.12479 41090 ft 496 kts 133°
2026-04-26 11:25 52.76240 -94.03793 41092 ft 496 kts 133°
2026-04-26 11:26 52.71754 -93.95120 41093 ft 496 kts 133°
2026-04-26 11:26 52.67262 -93.86466 41094 ft 497 kts 133°
2026-04-26 11:27 52.62790 -93.77878 41097 ft 497 kts 133°
2026-04-26 11:27 52.58279 -93.69248 41102 ft 497 kts 133°
2026-04-26 11:28 52.53759 -93.60630 41100 ft 497 kts 133°
2026-04-26 11:28 52.49233 -93.52030 41103 ft 497 kts 133°
2026-04-26 11:29 52.44706 -93.43456 41102 ft 497 kts 133°
2026-04-26 11:29 52.40172 -93.34896 41107 ft 497 kts 134°
2026-04-26 11:30 52.36402 -93.27803 41110 ft 497 kts 134°
2026-04-26 11:30 52.31112 -93.17886 41113 ft 497 kts 134°
2026-04-26 11:31 52.26560 -93.09382 41113 ft 497 kts 134°
2026-04-26 11:31 52.22003 -93.00898 41118 ft 497 kts 134°
2026-04-26 11:32 52.17434 -92.92420 41115 ft 497 kts 134°
2026-04-26 11:32 52.12868 -92.83975 41121 ft 496 kts 134°
2026-04-26 11:33 52.08327 -92.75607 41121 ft 496 kts 134°
2026-04-26 11:33 52.03745 -92.67191 41125 ft 496 kts 134°
2026-04-26 11:34 51.99166 -92.58807 41123 ft 496 kts 134°
2026-04-26 11:34 51.94576 -92.50432 41128 ft 497 kts 134°
2026-04-26 11:35 51.89977 -92.42070 41123 ft 497 kts 134°
2026-04-26 11:35 51.86155 -92.35139 41135 ft 496 kts 134°
2026-04-26 11:36 51.80799 -92.25460 41140 ft 496 kts 134°
2026-04-26 11:36 51.76194 -92.17169 41139 ft 496 kts 135°
2026-04-26 11:37 51.71578 -92.08886 41143 ft 496 kts 135°
2026-04-26 11:37 51.66952 -92.00611 41148 ft 496 kts 135°
2026-04-26 11:38 51.62320 -91.92352 41138 ft 496 kts 135°
2026-04-26 11:38 51.57685 -91.84116 41143 ft 495 kts 135°
2026-04-26 11:39 51.53083 -91.75965 41150 ft 495 kts 135°
2026-04-26 11:39 51.48450 -91.67787 41149 ft 495 kts 135°
2026-04-26 11:40 51.43806 -91.59616 41151 ft 495 kts 135°
2026-04-26 11:40 51.39155 -91.51458 41152 ft 495 kts 135°
2026-04-26 11:42 51.20508 -91.19015 41152 ft 495 kts 135°
2026-04-26 11:43 51.15863 -91.10999 41148 ft 495 kts 135°
2026-04-26 11:43 51.11175 -91.02935 41148 ft 495 kts 136°
2026-04-26 11:44 51.06489 -90.94899 41152 ft 495 kts 136°
2026-04-26 11:44 51.02592 -90.88236 41150 ft 495 kts 136°
2026-04-26 11:45 50.97139 -90.78942 41151 ft 494 kts 136°
2026-04-26 11:45 50.92443 -90.70965 41149 ft 494 kts 136°
2026-04-26 11:46 50.88529 -90.64337 41148 ft 494 kts 136°
2026-04-26 11:46 50.83823 -90.56390 41149 ft 494 kts 136°
2026-04-26 11:47 50.79106 -90.48450 41145 ft 494 kts 136°
2026-04-26 11:47 50.74388 -90.40533 41146 ft 494 kts 136°
2026-04-26 11:48 50.69671 -90.32642 41146 ft 494 kts 136°
2026-04-26 11:48 50.64979 -90.24819 41156 ft 494 kts 136°
2026-04-26 11:49 50.60247 -90.16951 41157 ft 494 kts 136°
2026-04-26 11:49 50.55512 -90.09104 41153 ft 494 kts 136°
2026-04-26 11:50 50.50789 -90.01303 41154 ft 494 kts 136°
2026-04-26 11:50 50.45993 -89.93574 41158 ft 493 kts 138°
2026-04-26 11:51 50.41100 -89.86027 41162 ft 493 kts 139°
2026-04-26 11:51 50.36208 -89.78510 41168 ft 493 kts 139°
2026-04-26 11:52 50.31325 -89.70978 41166 ft 493 kts 139°
2026-04-26 11:52 50.26473 -89.63491 41167 ft 493 kts 139°
2026-04-26 11:53 50.21591 -89.55977 41175 ft 493 kts 139°
2026-04-26 11:54 50.14243 -89.44715 41177 ft 493 kts 139°
2026-04-26 11:54 50.09346 -89.37238 41175 ft 493 kts 139°
2026-04-26 11:55 50.04470 -89.29816 41177 ft 493 kts 139°
2026-04-26 11:55 49.99564 -89.22372 41181 ft 493 kts 139°
2026-04-26 11:56 49.94648 -89.14934 41179 ft 493 kts 139°
2026-04-26 11:56 49.89728 -89.07512 41176 ft 493 kts 139°
2026-04-26 11:57 49.84808 -89.00112 41185 ft 491 kts 139°
2026-04-26 11:57 49.79926 -88.92791 41184 ft 491 kts 139°
2026-04-26 11:58 49.75000 -88.85427 41187 ft 491 kts 139°
2026-04-26 11:58 49.70069 -88.78078 41186 ft 491 kts 139°
2026-04-26 11:59 49.65171 -88.70799 41192 ft 492 kts 139°
2026-04-26 11:59 49.60231 -88.63478 41188 ft 492 kts 140°
2026-04-26 12:00 49.55293 -88.56181 41199 ft 491 kts 140°
2026-04-26 12:00 49.50359 -88.48913 41191 ft 491 kts 140°
2026-04-26 12:01 49.45418 -88.41656 41197 ft 491 kts 140°
2026-04-26 12:01 49.40466 -88.34404 41206 ft 492 kts 140°
2026-04-26 12:02 49.35538 -88.27209 41205 ft 492 kts 140°
2026-04-26 12:02 49.30573 -88.19981 41205 ft 492 kts 140°
2026-04-26 12:03 49.25608 -88.12773 41211 ft 492 kts 140°
2026-04-26 12:03 49.20631 -88.05570 41208 ft 492 kts 140°
2026-04-26 12:04 49.15647 -87.98377 41216 ft 492 kts 140°
2026-04-26 12:04 49.10660 -87.91200 41216 ft 492 kts 140°
2026-04-26 12:05 49.05700 -87.84083 41204 ft 492 kts 140°
2026-04-26 12:05 49.00697 -87.76925 41213 ft 493 kts 140°
2026-04-26 12:06 48.95699 -87.69795 41227 ft 492 kts 140°
2026-04-26 12:06 48.90684 -87.62661 41224 ft 492 kts 140°
2026-04-26 12:07 48.85680 -87.55564 41222 ft 492 kts 140°
2026-04-26 12:07 48.80672 -87.48479 41221 ft 492 kts 140°
2026-04-26 12:08 48.75686 -87.41449 41229 ft 492 kts 140°
2026-04-26 12:08 48.70667 -87.34390 41224 ft 491 kts 140°
2026-04-26 12:09 48.65655 -87.27361 41222 ft 490 kts 140°
2026-04-26 12:09 48.60643 -87.20353 41217 ft 490 kts 141°
2026-04-26 12:10 48.55627 -87.13359 41226 ft 491 kts 141°
2026-04-26 12:10 48.50628 -87.06409 41227 ft 491 kts 141°
2026-04-26 12:11 48.45599 -86.99436 41230 ft 491 kts 141°
2026-04-26 12:11 48.40564 -86.92474 41225 ft 491 kts 141°
2026-04-26 12:12 48.35522 -86.85523 41228 ft 492 kts 141°
2026-04-26 12:12 48.30464 -86.78569 41223 ft 493 kts 141°
2026-04-26 12:13 48.25405 -86.71632 41231 ft 493 kts 141°
2026-04-26 12:13 48.20330 -86.64693 41228 ft 493 kts 141°
2026-04-26 12:14 48.15263 -86.57786 41222 ft 493 kts 141°
2026-04-26 12:14 48.10179 -86.50875 41226 ft 494 kts 141°
2026-04-26 12:15 48.05124 -86.44021 41226 ft 494 kts 141°
2026-04-26 12:15 48.00026 -86.37128 41232 ft 494 kts 141°
2026-04-26 12:16 47.94925 -86.30250 41222 ft 494 kts 141°
2026-04-26 12:16 47.89817 -86.23383 41235 ft 494 kts 141°
2026-04-26 12:17 47.84694 -86.16514 41233 ft 495 kts 141°
2026-04-26 12:17 47.79606 -86.09711 41238 ft 495 kts 141°
2026-04-26 12:18 47.74480 -86.02876 41242 ft 495 kts 141°
2026-04-26 12:18 47.69351 -85.96056 41244 ft 495 kts 141°
2026-04-26 12:19 47.64214 -85.89243 41239 ft 495 kts 141°
2026-04-26 12:19 47.59076 -85.82449 41239 ft 495 kts 141°
2026-04-26 12:20 47.53930 -85.75662 41240 ft 495 kts 142°
2026-04-26 12:20 47.48774 -85.68881 41239 ft 496 kts 142°
2026-04-26 12:21 47.43646 -85.62155 41239 ft 495 kts 142°
2026-04-26 12:21 47.38483 -85.55401 41241 ft 495 kts 142°
2026-04-26 12:22 47.33314 -85.48659 41252 ft 495 kts 142°
2026-04-26 12:22 47.28170 -85.41966 41236 ft 495 kts 142°
2026-04-26 12:23 47.22993 -85.35250 41255 ft 496 kts 142°
2026-04-26 12:23 47.17808 -85.28542 41249 ft 496 kts 142°
2026-04-26 12:24 47.12627 -85.21855 41254 ft 496 kts 142°
2026-04-26 12:24 47.07432 -85.15170 41243 ft 496 kts 142°
2026-04-26 12:25 46.99630 -85.05163 41261 ft 497 kts 142°
2026-04-26 12:25 46.94413 -84.98494 41257 ft 498 kts 142°
2026-04-26 12:26 46.89224 -84.91879 41260 ft 498 kts 142°
2026-04-26 12:26 46.83997 -84.85232 41250 ft 498 kts 142°
2026-04-26 12:27 46.78761 -84.78593 41257 ft 499 kts 142°
2026-04-26 12:27 46.73515 -84.71959 41253 ft 499 kts 142°
2026-04-26 12:28 46.68262 -84.65333 41248 ft 500 kts 142°
2026-04-26 12:28 46.63031 -84.58753 41242 ft 500 kts 142°
2026-04-26 12:29 46.57760 -84.52140 41240 ft 500 kts 142°
2026-04-26 12:30 46.49832 -84.42226 41236 ft 500 kts 142°
2026-04-26 12:30 46.44585 -84.35688 41237 ft 500 kts 142°
2026-04-26 12:31 46.37372 -84.24657 41263 ft 506 kts 132°
2026-04-26 12:31 46.32939 -84.16722 41264 ft 507 kts 131°
2026-04-26 12:32 46.28535 -84.08763 41259 ft 507 kts 131°
2026-04-26 12:33 46.21924 -83.96918 41260 ft 507 kts 131°
2026-04-26 12:33 46.17480 -83.89014 41255 ft 507 kts 131°
2026-04-26 12:34 46.13023 -83.81111 41252 ft 507 kts 131°
2026-04-26 12:34 46.08563 -83.73225 41243 ft 507 kts 131°
2026-04-26 12:35 46.04853 -83.66682 41249 ft 507 kts 131°
2026-04-26 12:35 46.00380 -83.58811 41250 ft 508 kts 131°
2026-04-26 12:36 45.95900 -83.50952 41256 ft 508 kts 131°
2026-04-26 12:36 45.91414 -83.43101 41271 ft 508 kts 131°
2026-04-26 12:37 45.86918 -83.35258 41263 ft 508 kts 131°
2026-04-26 12:37 45.82419 -83.27431 41267 ft 508 kts 131°
2026-04-26 12:38 45.77938 -83.19657 41265 ft 509 kts 131°
2026-04-26 12:38 45.73414 -83.11831 41265 ft 509 kts 131°
2026-04-26 12:39 45.68890 -83.04026 41265 ft 509 kts 131°
2026-04-26 12:39 45.64364 -82.96239 41265 ft 509 kts 131°
2026-04-26 12:40 45.59827 -82.88455 41261 ft 510 kts 131°
2026-04-26 12:40 45.55283 -82.80682 41257 ft 510 kts 131°
2026-04-26 12:41 45.50727 -82.72909 41255 ft 510 kts 131°
2026-04-26 12:41 45.46201 -82.65208 41257 ft 510 kts 131°
2026-04-26 12:42 45.41633 -82.57457 41257 ft 510 kts 131°
2026-04-26 12:42 45.37065 -82.49727 41259 ft 511 kts 131°
2026-04-26 12:43 45.32476 -82.41984 41247 ft 511 kts 131°
2026-04-26 12:43 45.27924 -82.34324 41259 ft 511 kts 131°
2026-04-26 12:44 45.23331 -82.26616 41266 ft 511 kts 131°
2026-04-26 12:44 45.18731 -82.18920 41260 ft 512 kts 131°
2026-04-26 12:45 45.14120 -82.11224 41266 ft 512 kts 131°
2026-04-26 12:45 45.09505 -82.03543 41257 ft 512 kts 131°
2026-04-26 12:46 45.04918 -81.95928 41263 ft 512 kts 132°
2026-04-26 12:46 45.00294 -81.88273 41259 ft 512 kts 132°
2026-04-26 12:47 44.95662 -81.80627 41259 ft 512 kts 132°
2026-04-26 12:47 44.91030 -81.73000 41254 ft 512 kts 132°
2026-04-26 12:48 44.86390 -81.65381 41255 ft 512 kts 132°
2026-04-26 12:48 44.81740 -81.57767 41253 ft 512 kts 132°
2026-04-26 12:49 44.77076 -81.50151 41249 ft 513 kts 132°
2026-04-26 12:49 44.72440 -81.42601 41244 ft 513 kts 132°
2026-04-26 12:50 44.67765 -81.35006 41239 ft 513 kts 132°
2026-04-26 12:50 44.63092 -81.27435 41235 ft 513 kts 132°
2026-04-26 12:51 44.58401 -81.19857 41240 ft 514 kts 132°
2026-04-26 12:51 44.53702 -81.12285 41239 ft 515 kts 132°
2026-04-26 12:52 44.48988 -81.04710 41234 ft 515 kts 132°
2026-04-26 12:52 44.44300 -80.97196 41234 ft 515 kts 132°
2026-04-26 12:53 44.39586 -80.89661 41235 ft 515 kts 132°
2026-04-26 12:53 44.34863 -80.82131 41230 ft 515 kts 132°
2026-04-26 12:54 44.30129 -80.74604 41220 ft 515 kts 132°
2026-04-26 12:54 44.25390 -80.67089 41223 ft 515 kts 132°
2026-04-26 12:55 44.20681 -80.59641 41220 ft 515 kts 132°
2026-04-26 12:55 44.15930 -80.52147 41224 ft 515 kts 132°
2026-04-26 12:56 44.11178 -80.44671 41215 ft 515 kts 132°
2026-04-26 12:56 44.06415 -80.37197 41218 ft 515 kts 132°
2026-04-26 12:57 44.01659 -80.29753 41218 ft 515 kts 132°
2026-04-26 12:57 43.96924 -80.22362 41223 ft 515 kts 132°
2026-04-26 12:58 43.89763 -80.11220 41223 ft 515 kts 132°
2026-04-26 12:58 43.84990 -80.03818 41222 ft 515 kts 132°
2026-04-26 12:59 43.80207 -79.96420 41220 ft 515 kts 132°
2026-04-26 12:59 43.75422 -79.89038 41219 ft 515 kts 132°
2026-04-26 13:00 43.70629 -79.81664 41225 ft 516 kts 132°
2026-04-26 13:00 43.65830 -79.74298 41225 ft 515 kts 132°
2026-04-26 13:01 43.61066 -79.67005 41221 ft 514 kts 132°
2026-04-26 13:01 43.56266 -79.59676 41220 ft 514 kts 132°
2026-04-26 13:02 43.51468 -79.52368 41216 ft 514 kts 132°
2026-04-26 13:02 43.46655 -79.45057 41219 ft 515 kts 133°
2026-04-26 13:03 43.41839 -79.37760 41221 ft 514 kts 132°
2026-04-26 13:03 43.37037 -79.30502 41222 ft 513 kts 132°
2026-04-26 13:04 43.32227 -79.23251 41208 ft 512 kts 132°
2026-04-26 13:04 43.27420 -79.16022 41220 ft 513 kts 133°
2026-04-26 13:05 43.22626 -79.08831 41221 ft 513 kts 133°
2026-04-26 13:05 43.17803 -79.01615 41230 ft 512 kts 133°
2026-04-26 13:06 43.12989 -78.94431 41229 ft 511 kts 133°
2026-04-26 13:06 43.08184 -78.87277 41221 ft 510 kts 133°
2026-04-26 13:07 43.03360 -78.80114 41226 ft 511 kts 133°
2026-04-26 13:07 42.98572 -78.73022 41229 ft 511 kts 133°
2026-04-26 13:08 42.94007 -78.65599 41230 ft 510 kts 123°
2026-04-26 13:08 42.91028 -78.56882 41226 ft 507 kts 108°
2026-04-26 13:09 42.88787 -78.47752 41204 ft 507 kts 108°
2026-04-26 13:09 42.86561 -78.38620 41203 ft 507 kts 108°
2026-04-26 13:10 42.84324 -78.29496 41205 ft 508 kts 108°
2026-04-26 13:10 42.82077 -78.20372 41206 ft 508 kts 108°
2026-04-26 13:11 42.79838 -78.11314 41202 ft 508 kts 108°
2026-04-26 13:11 42.77572 -78.02189 41210 ft 509 kts 108°
2026-04-26 13:12 42.75298 -77.93066 41217 ft 509 kts 109°
2026-04-26 13:12 42.73015 -77.83942 41216 ft 508 kts 109°
2026-04-26 13:13 42.70730 -77.74842 41221 ft 508 kts 109°
2026-04-26 13:13 42.68437 -77.65752 41221 ft 508 kts 109°
2026-04-26 13:14 42.66154 -77.56730 41223 ft 508 kts 109°
2026-04-26 13:14 42.63845 -77.47645 41219 ft 509 kts 109°
2026-04-26 13:15 42.61523 -77.38543 41220 ft 509 kts 109°
2026-04-26 13:15 42.59587 -77.30982 41219 ft 509 kts 109°
2026-04-26 13:16 42.56861 -77.20373 41219 ft 509 kts 110°
2026-04-26 13:16 42.54516 -77.11284 41220 ft 511 kts 110°
2026-04-26 13:17 42.50993 -76.97698 41217 ft 511 kts 110°
2026-04-26 13:18 42.47439 -76.84067 41203 ft 511 kts 110°
2026-04-26 13:19 42.43857 -76.70407 41201 ft 514 kts 110°
2026-04-26 13:19 42.41451 -76.61278 41201 ft 514 kts 110°
2026-04-26 13:20 42.39040 -76.52161 41202 ft 514 kts 110°
2026-04-26 13:20 42.36635 -76.43102 41201 ft 515 kts 110°
2026-04-26 13:21 42.34200 -76.33964 41199 ft 516 kts 110°
2026-04-26 13:21 42.31760 -76.24840 41183 ft 516 kts 110°
2026-04-26 13:22 42.29311 -76.15716 41178 ft 516 kts 111°
2026-04-26 13:22 42.26854 -76.06599 41174 ft 517 kts 111°
2026-04-26 13:23 42.24389 -75.97486 41175 ft 517 kts 111°
2026-04-26 13:23 42.21913 -75.88365 41184 ft 517 kts 111°
2026-04-26 13:24 42.19852 -75.80799 41185 ft 517 kts 111°
2026-04-26 13:24 42.17362 -75.71687 41185 ft 517 kts 111°
2026-04-26 13:25 42.14879 -75.62636 41182 ft 517 kts 111°
2026-04-26 13:25 42.12377 -75.53550 41182 ft 517 kts 111°
2026-04-26 13:26 42.09867 -75.44464 41181 ft 517 kts 111°
2026-04-26 13:26 42.07348 -75.35381 41168 ft 517 kts 112°
2026-04-26 13:27 42.04422 -75.26565 41176 ft 515 kts 118°
2026-04-26 13:27 42.01174 -75.17959 41176 ft 515 kts 119°
2026-04-26 13:28 41.97944 -75.09422 41175 ft 515 kts 119°
2026-04-26 13:28 41.94690 -75.00832 41176 ft 516 kts 119°
2026-04-26 13:29 41.91422 -74.92229 41170 ft 516 kts 119°
2026-04-26 13:29 41.88151 -74.83641 41167 ft 516 kts 119°
2026-04-26 13:30 41.84940 -74.75226 40959 ft 496 kts 119°
2026-04-26 13:30 41.83388 -74.71171 40432 ft 494 kts 120°
2026-04-26 13:30 41.81811 -74.67061 39703 ft 497 kts 120°
2026-04-26 13:30 41.80223 -74.62927 38992 ft 501 kts 120°
2026-04-26 13:31 41.78620 -74.58763 38159 ft 503 kts 120°
2026-04-26 13:31 41.77009 -74.54578 37284 ft 506 kts 120°
2026-04-26 13:31 41.75393 -74.50388 36465 ft 508 kts 120°
2026-04-26 13:31 41.73767 -74.46177 35655 ft 509 kts 120°
2026-04-26 13:32 41.72015 -74.42041 34880 ft 508 kts 126°
2026-04-26 13:32 41.69913 -74.38335 34125 ft 505 kts 134°
2026-04-26 13:32 41.67373 -74.35132 33256 ft 500 kts 147°
2026-04-26 13:32 41.64384 -74.32863 32421 ft 490 kts 162°
2026-04-26 13:33 41.61114 -74.31745 31607 ft 480 kts 178°
2026-04-26 13:33 41.57815 -74.31781 30819 ft 472 kts 191°
2026-04-26 13:33 41.54575 -74.32462 29999 ft 469 kts 197°
2026-04-26 13:33 41.51441 -74.33630 29078 ft 464 kts 204°
2026-04-26 13:34 41.48438 -74.35161 28205 ft 463 kts 206°
2026-04-26 13:34 41.45457 -74.36790 27341 ft 462 kts 207°
2026-04-26 13:34 41.42490 -74.38437 26529 ft 462 kts 207°
2026-04-26 13:34 41.40526 -74.39522 25980 ft 458 kts 206°
2026-04-26 13:35 41.36591 -74.41246 24947 ft 439 kts 201°
2026-04-26 13:35 41.33713 -74.42406 24164 ft 425 kts 202°
2026-04-26 13:35 41.30934 -74.43547 23365 ft 412 kts 202°
2026-04-26 13:35 41.28233 -74.44676 22491 ft 403 kts 202°
2026-04-26 13:36 41.25548 -74.45814 21671 ft 408 kts 202°
2026-04-26 13:36 41.22834 -74.46973 20856 ft 412 kts 202°
2026-04-26 13:36 41.20092 -74.48144 20059 ft 415 kts 202°
2026-04-26 13:36 41.17327 -74.49324 19283 ft 418 kts 202°
2026-04-26 13:37 41.14549 -74.50510 18530 ft 420 kts 202°
2026-04-26 13:37 41.11760 -74.51699 17668 ft 421 kts 202°
2026-04-26 13:37 41.08970 -74.52888 16830 ft 421 kts 201°
2026-04-26 13:37 41.06150 -74.53828 16033 ft 425 kts 191°
2026-04-26 13:38 41.03209 -74.54218 15248 ft 425 kts 186°
2026-04-26 13:38 41.00253 -74.54480 14476 ft 424 kts 185°
2026-04-26 13:38 40.97311 -74.54733 13685 ft 420 kts 184°
2026-04-26 13:38 40.94464 -74.54983 12846 ft 401 kts 184°
2026-04-26 13:39 40.91736 -74.55227 12033 ft 383 kts 184°
2026-04-26 13:39 40.89128 -74.55464 11304 ft 367 kts 184°
2026-04-26 13:39 40.86654 -74.55690 10793 ft 346 kts 183°
2026-04-26 13:39 40.84314 -74.55905 10313 ft 328 kts 183°
2026-04-26 13:40 40.82148 -74.55963 10127 ft 302 kts 177°
2026-04-26 13:40 40.80094 -74.55876 9829 ft 293 kts 176°
2026-04-26 13:40 40.78042 -74.55763 9223 ft 297 kts 175°
2026-04-26 13:40 40.75982 -74.55649 8597 ft 293 kts 176°
2026-04-26 13:41 40.73963 -74.55539 7977 ft 286 kts 175°
2026-04-26 13:41 40.71996 -74.55434 7458 ft 281 kts 176°
2026-04-26 13:41 40.70046 -74.55329 7071 ft 280 kts 176°
2026-04-26 13:41 40.68108 -74.55225 6662 ft 278 kts 175°
2026-04-26 13:42 40.66179 -74.55109 6251 ft 276 kts 174°
2026-04-26 13:42 40.64303 -74.54738 5856 ft 270 kts 166°
2026-04-26 13:42 40.62474 -74.54218 5478 ft 267 kts 165°
2026-04-26 13:42 40.60693 -74.53695 5122 ft 264 kts 165°
2026-04-26 13:43 40.58935 -74.53180 4978 ft 252 kts 164°
2026-04-26 13:43 40.57279 -74.52700 4966 ft 235 kts 164°
2026-04-26 13:43 40.55725 -74.52250 4850 ft 225 kts 164°
2026-04-26 13:43 40.54188 -74.51801 4474 ft 228 kts 163°
2026-04-26 13:44 40.52622 -74.51343 4066 ft 232 kts 163°
2026-04-26 13:44 40.51078 -74.50735 3660 ft 230 kts 148°
2026-04-26 13:44 40.49841 -74.49481 3257 ft 227 kts 132°
2026-04-26 13:44 40.48855 -74.47898 3004 ft 218 kts 117°
2026-04-26 13:45 40.48386 -74.46110 2985 ft 201 kts 92°
2026-04-26 13:45 40.48380 -74.44276 2990 ft 201 kts 84°
2026-04-26 13:45 40.48474 -74.42445 2989 ft 201 kts 83°
2026-04-26 13:45 40.48612 -74.40631 2986 ft 199 kts 79°
2026-04-26 13:46 40.48928 -74.38862 2991 ft 199 kts 72°
2026-04-26 13:46 40.49331 -74.37116 2993 ft 199 kts 71°
2026-04-26 13:46 40.49742 -74.35389 2998 ft 197 kts 71°
2026-04-26 13:46 40.50150 -74.33672 2994 ft 197 kts 71°
2026-04-26 13:47 40.50560 -74.31954 3002 ft 197 kts 71°
2026-04-26 13:47 40.51060 -74.30279 2992 ft 196 kts 63°
2026-04-26 13:47 40.51751 -74.28770 2995 ft 196 kts 54°
2026-04-26 13:47 40.52656 -74.27435 3004 ft 196 kts 45°
2026-04-26 13:48 40.53742 -74.26332 3002 ft 198 kts 32°
2026-04-26 13:48 40.54939 -74.25574 2965 ft 184 kts 27°
2026-04-26 13:48 40.55957 -74.24938 2778 ft 172 kts 29°
2026-04-26 13:48 40.56993 -74.24270 2509 ft 159 kts 29°
2026-04-26 13:49 40.57974 -74.23645 2269 ft 155 kts 28°
2026-04-26 13:49 40.58943 -74.23028 2070 ft 155 kts 28°
2026-04-26 13:49 40.59916 -74.22410 1856 ft 156 kts 27°
2026-04-26 13:49 40.60897 -74.21786 1631 ft 157 kts 27°
2026-04-26 13:50 40.61880 -74.21162 1419 ft 156 kts 27°
2026-04-26 13:50 40.62846 -74.20547 1204 ft 154 kts 27°
2026-04-26 13:50 40.63773 -74.19959 989 ft 142 kts 27°
2026-04-26 13:50 40.64624 -74.19418 795 ft 130 kts 27°
2026-04-26 13:51 40.65411 -74.18917 637 ft 121 kts 26°
2026-04-26 13:51 40.66173 -74.18428 463 ft 122 kts 25°
2026-04-26 13:51 40.66935 -74.17942 310 ft 121 kts 25°
2026-04-26 13:51 40.67683 -74.17474 137 ft 119 kts 25°
2026-04-26 13:52 40.68421 -74.17009 30 ft 115 kts 26°
2026-04-26 13:52 40.69012 -74.16628 29 ft 74 kts 25°
2026-04-26 13:52 40.69354 -74.16450 31 ft 32 kts
2026-04-26 13:52 40.69485 -74.16459 29 ft 14 kts 356°
2026-04-26 13:53 40.69542 -74.16464 29 ft 0 kts 355°
2026-04-26 13:53 40.69545 -74.16465 29 ft 1 kts 355°
2026-04-26 13:54 40.69583 -74.16481 28 ft 14 kts 326°
2026-04-26 13:54 40.69656 -74.16645 28 ft 19 kts 296°
2026-04-26 13:54 40.69680 -74.16768 28 ft 16 kts 260°
2026-04-26 13:55 40.69475 -74.16994 28 ft 24 kts 206°
2026-04-26 13:55 40.69366 -74.17064 28 ft 27 kts 206°
2026-04-26 13:55 40.68942 -74.17333 28 ft 13 kts 205°
2026-04-26 13:56 40.68855 -74.17388 27 ft 13 kts 206°
2026-04-26 13:56 40.68844 -74.17497 28 ft 15 kts 294°
2026-04-26 13:56 40.68877 -74.17587 28 ft 0 kts 296°
2026-04-26 13:56 40.68876 -74.17594 28 ft 1 kts 265°
2026-04-26 13:57 40.68871 -74.17600 28 ft 2 kts 231°
2026-04-26 13:57 40.68864 -74.17600 28 ft 1 kts 190°
2026-04-26 13:57 40.68859 -74.17596 28 ft 1 kts 160°
2026-04-26 13:57 40.68856 -74.17584 28 ft 1 kts 103°
2026-04-26 13:58 40.68857 -74.17555 28 ft 6 kts 94°
2026-04-26 13:58 40.68833 -74.17462 28 ft 10 kts 111°
2026-04-26 13:58 40.68858 -74.17391 27 ft 10 kts 28°
2026-04-26 13:58 40.68907 -74.17433 28 ft 10 kts 297°
2026-04-26 13:59 40.68935 -74.17469 28 ft 5 kts 327°
2026-04-26 13:59 40.68941 -74.17474 28 ft 2 kts 328°
2026-04-26 13:59 40.68949 -74.17480 28 ft 1 kts 329°
2026-04-26 14:00 40.68950 -74.17481 28 ft 0 kts 330°